Time,TemperatureF,DewpointF,PressureIn,WindDirection,WindDirectionDegrees,WindSpeedMPH,WindSpeedGustMPH,Humidity,HourlyPrecipIn,Conditions,Clouds,dailyrainin,SolarRadiationWatts/m^2,SoftwareType,DateUTC
2017-08-22 00:00:00,78.7,70.1,30.04,South,190,2.0,2.0,75,0.00,,---,0.00,0.00,VWS V14.01,2017-08-22 04:00:00,
2017-08-22 00:01:00,78.6,70.0,30.04,South,190,0.0,2.0,75,0.00,,---,0.00,0.00,VWS V14.01,2017-08-22 04:01:00,
2017-08-22 00:02:00,78.9,70.3,30.04,South,190,0.0,0.0,75,0.00,,---,0.00,0.00,VWS V14.01,2017-08-22 04:02:00,
2017-08-22 00:03:00,78.6,70.4,30.04,South,190,1.0,2.0,76,0.00,,---,0.00,0.00,VWS V14.01,2017-08-22 04:03:00,
2017-08-22 00:04:00,78.6,70.4,30.04,South,190,0.0,1.0,76,0.00,,---,0.00,0.00,VWS V14.01,2017-08-22 04:04:00,
2017-08-22 00:05:00,78.5,70.3,30.04,South,190,0.0,1.0,76,0.00,,---,0.00,0.00,VWS V14.01,2017-08-22 04:05:00,
2017-08-22 00:06:00,78.5,70.3,30.04,South,190,0.0,1.0,76,0.00,,---,0.00,0.00,VWS V14.01,2017-08-22 04:06:00,
2017-08-22 00:07:00,78.7,70.1,30.04,South,190,0.0,0.0,75,0.00,,---,0.00,0.00,VWS V14.01,2017-08-22 04:07:00,
2017-08-22 00:08:00,78.4,70.2,30.04,South,190,0.0,2.0,76,0.00,,---,0.00,0.00,VWS V14.01,2017-08-22 04:08:00,
2017-08-22 00:09:00,78.4,70.2,30.03,South,190,1.0,3.0,76,0.00,,---,0.00,0.00,VWS V14.01,2017-08-22 04:09:00,
2017-08-22 00:10:00,78.4,70.2,30.03,South,190,0.0,2.0,76,0.00,,---,0.00,0.00,VWS V14.01,2017-08-22 04:10:00,
2017-08-22 00:11:00,78.4,70.2,30.03,South,190,0.0,0.0,76,0.00,,---,0.00,0.00,VWS V14.01,2017-08-22 04:11:00,
2017-08-22 00:12:00,78.6,70.0,30.04,South,190,2.0,2.0,75,0.00,,---,0.00,0.00,VWS V14.01,2017-08-22 04:12:00,
2017-08-22 00:13:00,78.4,70.2,30.03,South,190,0.0,0.0,76,0.00,,---,0.00,0.00,VWS V14.01,2017-08-22 04:13:00,
2017-08-22 00:14:00,78.3,70.1,30.03,South,190,0.0,0.0,76,0.00,,---,0.00,0.00,VWS V14.01,2017-08-22 04:14:00,
2017-08-22 00:15:00,78.3,70.1,30.03,South,190,0.0,0.0,76,0.00,,---,0.00,0.00,VWS V14.01,2017-08-22 04:15:00,
2017-08-22 00:16:00,78.3,70.1,30.03,South,190,0.0,0.0,76,0.00,,---,0.00,0.00,VWS V14.01,2017-08-22 04:16:00,
2017-08-22 00:17:00,78.4,70.2,30.04,South,190,0.0,0.0,76,0.00,,---,0.00,0.00,VWS V14.01,2017-08-22 04:17:00,
2017-08-22 00:18:00,78.2,70.4,30.03,South,190,0.0,0.0,77,0.00,,---,0.00,0.00,VWS V14.01,2017-08-22 04:18:00,
2017-08-22 00:19:00,78.2,70.4,30.03,South,190,0.0,0.0,77,0.00,,---,0.00,0.00,VWS V14.01,2017-08-22 04:19:00,
2017-08-22 00:20:00,78.2,70.4,30.03,South,190,0.0,0.0,77,0.00,,---,0.00,0.00,VWS V14.01,2017-08-22 04:20:00,
2017-08-22 00:21:00,78.2,70.4,30.03,South,190,0.0,0.0,77,0.00,,---,0.00,0.00,VWS V14.01,2017-08-22 04:21:00,
2017-08-22 00:22:00,78.4,70.2,30.03,South,190,0.0,0.0,76,0.00,,---,0.00,0.00,VWS V14.01,2017-08-22 04:22:00,
2017-08-22 00:23:00,78.2,70.4,30.03,South,190,0.0,0.0,77,0.00,,---,0.00,0.00,VWS V14.01,2017-08-22 04:23:00,
2017-08-22 00:24:00,78.2,70.4,30.03,South,190,0.0,0.0,77,0.00,,---,0.00,0.00,VWS V14.01,2017-08-22 04:24:00,
2017-08-22 00:25:00,78.2,70.4,30.03,South,190,0.0,0.0,77,0.00,,---,0.00,0.00,VWS V14.01,2017-08-22 04:25:00,
2017-08-22 00:26:00,78.1,70.3,30.03,South,190,0.0,0.0,77,0.00,,---,0.00,0.00,VWS V14.01,2017-08-22 04:26:00,
2017-08-22 00:27:00,78.3,70.5,30.03,South,190,0.0,0.0,77,0.00,,---,0.00,0.00,VWS V14.01,2017-08-22 04:27:00,
2017-08-22 00:28:00,78.1,70.3,30.03,South,190,1.0,2.0,77,0.00,,---,0.00,0.00,VWS V14.01,2017-08-22 04:28:00,
2017-08-22 00:29:00,78.1,70.3,30.03,South,190,0.0,0.0,77,0.00,,---,0.00,0.00,VWS V14.01,2017-08-22 04:29:00,
2017-08-22 00:30:00,78.1,70.3,30.03,South,190,0.0,0.0,77,0.00,,---,0.00,0.00,VWS V14.01,2017-08-22 04:30:00,
2017-08-22 00:31:00,78.1,70.3,30.02,South,190,0.0,0.0,77,0.00,,---,0.00,0.00,VWS V14.01,2017-08-22 04:31:00,
2017-08-22 00:32:00,78.2,70.4,30.03,South,190,0.0,0.0,77,0.00,,---,0.00,0.00,VWS V14.01,2017-08-22 04:32:00,
2017-08-22 00:33:00,78.1,70.3,30.02,South,190,0.0,0.0,77,0.00,,---,0.00,0.00,VWS V14.01,2017-08-22 04:33:00,
2017-08-22 00:34:00,78.1,70.3,30.02,South,190,0.0,0.0,77,0.00,,---,0.00,0.00,VWS V14.01,2017-08-22 04:34:00,
2017-08-22 00:35:00,78.1,70.3,30.02,South,190,0.0,0.0,77,0.00,,---,0.00,0.00,VWS V14.01,2017-08-22 04:35:00,
2017-08-22 00:36:00,78.1,70.3,30.02,South,190,0.0,0.0,77,0.00,,---,0.00,0.00,VWS V14.01,2017-08-22 04:36:00,
2017-08-22 00:37:00,78.1,70.3,30.03,South,190,2.0,2.0,77,0.00,,---,0.00,0.00,VWS V14.01,2017-08-22 04:37:00,
2017-08-22 00:38:00,78.1,70.3,30.02,South,190,0.0,0.0,77,0.00,,---,0.00,0.00,VWS V14.01,2017-08-22 04:38:00,
2017-08-22 00:39:00,78.1,70.3,30.02,South,190,0.0,0.0,77,0.00,,---,0.00,0.00,VWS V14.01,2017-08-22 04:39:00,
2017-08-22 00:40:00,78.2,70.4,30.02,South,190,0.0,0.0,77,0.00,,---,0.00,0.00,VWS V14.01,2017-08-22 04:40:00,
2017-08-22 00:41:00,78.1,70.3,30.02,South,190,0.0,0.0,77,0.00,,---,0.00,0.00,VWS V14.01,2017-08-22 04:41:00,
2017-08-22 00:42:00,78.1,70.3,30.02,South,190,0.0,0.0,77,0.00,,---,0.00,0.00,VWS V14.01,2017-08-22 04:42:00,
2017-08-22 00:43:00,78.2,70.4,30.02,South,190,0.0,0.0,77,0.00,,---,0.00,0.00,VWS V14.01,2017-08-22 04:43:00,
2017-08-22 00:44:00,78.1,70.3,30.02,South,190,0.0,0.0,77,0.00,,---,0.00,0.00,VWS V14.01,2017-08-22 04:44:00,
2017-08-22 00:45:00,78.2,70.4,30.02,South,190,0.0,0.0,77,0.00,,---,0.00,0.00,VWS V14.01,2017-08-22 04:45:00,
2017-08-22 00:46:00,78.2,70.4,30.02,South,190,0.0,0.0,77,0.00,,---,0.00,0.00,VWS V14.01,2017-08-22 04:46:00,
2017-08-22 00:47:00,78.1,70.3,30.02,South,190,0.0,0.0,77,0.00,,---,0.00,0.00,VWS V14.01,2017-08-22 04:47:00,
2017-08-22 00:48:00,78.2,70.4,30.02,South,190,0.0,0.0,77,0.00,,---,0.00,0.00,VWS V14.01,2017-08-22 04:48:00,
2017-08-22 00:49:00,78.2,70.4,30.02,South,190,0.0,0.0,77,0.00,,---,0.00,0.00,VWS V14.01,2017-08-22 04:49:00,
2017-08-22 00:50:00,78.2,70.4,30.02,South,190,0.0,0.0,77,0.00,,---,0.00,0.00,VWS V14.01,2017-08-22 04:50:00,
2017-08-22 00:51:00,78.1,70.3,30.02,South,190,0.0,0.0,77,0.00,,---,0.00,0.00,VWS V14.01,2017-08-22 04:51:00,
2017-08-22 00:52:00,78.1,70.3,30.02,South,190,0.0,0.0,77,0.00,,---,0.00,0.00,VWS V14.01,2017-08-22 04:52:00,
2017-08-22 00:53:00,78.1,70.3,30.02,South,190,0.0,0.0,77,0.00,,---,0.00,0.00,VWS V14.01,2017-08-22 04:53:00,
2017-08-22 00:54:00,78.1,70.7,30.02,South,190,0.0,0.0,78,0.00,,---,0.00,0.00,VWS V14.01,2017-08-22 04:54:00,
2017-08-22 00:55:00,78.0,70.6,30.01,South,190,0.0,0.0,78,0.00,,---,0.00,0.00,VWS V14.01,2017-08-22 04:55:00,
2017-08-22 00:56:00,78.0,70.6,30.01,South,190,0.0,0.0,78,0.00,,---,0.00,0.00,VWS V14.01,2017-08-22 04:56:00,
2017-08-22 00:57:00,78.2,70.4,30.02,South,190,0.0,0.0,77,0.00,,---,0.00,0.00,VWS V14.01,2017-08-22 04:57:00,
2017-08-22 00:58:00,78.0,70.6,30.01,South,190,2.0,2.0,78,0.00,,---,0.00,0.00,VWS V14.01,2017-08-22 04:58:00,
2017-08-22 00:59:00,78.0,70.6,30.01,South,190,1.0,3.0,78,0.00,,---,0.00,0.00,VWS V14.01,2017-08-22 04:59:00,
2017-08-22 01:00:00,77.9,70.5,30.01,South,190,0.0,1.0,78,0.00,,---,0.00,0.00,VWS V14.01,2017-08-22 05:00:00,
2017-08-22 01:01:00,77.9,70.5,30.01,South,190,0.0,0.0,78,0.00,,---,0.00,0.00,VWS V14.01,2017-08-22 05:01:00,
2017-08-22 01:02:00,78.1,70.3,30.02,South,190,0.0,0.0,77,0.00,,---,0.00,0.00,VWS V14.01,2017-08-22 05:02:00,
2017-08-22 01:03:00,77.9,70.5,30.01,South,190,0.0,0.0,78,0.00,,---,0.00,0.00,VWS V14.01,2017-08-22 05:03:00,
2017-08-22 01:04:00,77.8,70.4,30.01,South,190,0.0,0.0,78,0.00,,---,0.00,0.00,VWS V14.01,2017-08-22 05:04:00,
2017-08-22 01:05:00,77.8,70.4,30.01,South,190,0.0,0.0,78,0.00,,---,0.00,0.00,VWS V14.01,2017-08-22 05:05:00,
2017-08-22 01:06:00,77.8,70.4,30.01,South,190,0.0,0.0,78,0.00,,---,0.00,0.00,VWS V14.01,2017-08-22 05:06:00,
2017-08-22 01:07:00,78.0,70.6,30.01,South,190,2.0,2.0,78,0.00,,---,0.00,0.00,VWS V14.01,2017-08-22 05:07:00,
2017-08-22 01:08:00,77.8,70.4,30.01,South,190,1.0,1.0,78,0.00,,---,0.00,0.00,VWS V14.01,2017-08-22 05:08:00,
2017-08-22 01:09:00,77.8,70.4,30.00,South,190,1.0,2.0,78,0.00,,---,0.00,0.00,VWS V14.01,2017-08-22 05:09:00,
2017-08-22 01:10:00,77.7,70.3,30.00,South,190,1.0,2.0,78,0.00,,---,0.00,0.00,VWS V14.01,2017-08-22 05:10:00,
2017-08-22 01:11:00,77.7,70.3,30.00,South,190,0.0,0.0,78,0.00,,---,0.00,0.00,VWS V14.01,2017-08-22 05:11:00,
2017-08-22 01:12:00,77.9,70.5,30.01,South,190,0.0,0.0,78,0.00,,---,0.00,0.00,VWS V14.01,2017-08-22 05:12:00,
2017-08-22 01:13:00,77.7,70.3,30.01,South,190,0.0,0.0,78,0.00,,---,0.00,0.00,VWS V14.01,2017-08-22 05:13:00,
2017-08-22 01:14:00,77.7,70.3,30.00,South,190,0.0,0.0,78,0.00,,---,0.00,0.00,VWS V14.01,2017-08-22 05:14:00,
2017-08-22 01:15:00,77.6,70.2,30.00,South,190,0.0,0.0,78,0.00,,---,0.00,0.00,VWS V14.01,2017-08-22 05:15:00,
2017-08-22 01:16:00,77.6,70.2,30.00,South,190,0.0,0.0,78,0.00,,---,0.00,0.00,VWS V14.01,2017-08-22 05:16:00,
2017-08-22 01:17:00,77.8,70.4,30.01,South,190,0.0,0.0,78,0.00,,---,0.00,0.00,VWS V14.01,2017-08-22 05:17:00,
2017-08-22 01:18:00,77.6,70.2,30.00,South,190,0.0,0.0,78,0.00,,---,0.00,0.00,VWS V14.01,2017-08-22 05:18:00,
2017-08-22 01:19:00,77.6,70.2,30.00,South,190,0.0,2.0,78,0.00,,---,0.00,0.00,VWS V14.01,2017-08-22 05:19:00,
2017-08-22 01:20:00,77.6,70.2,30.00,South,190,0.0,1.0,78,0.00,,---,0.00,0.00,VWS V14.01,2017-08-22 05:20:00,
2017-08-22 01:21:00,77.6,70.2,30.00,South,190,0.0,0.0,78,0.00,,---,0.00,0.00,VWS V14.01,2017-08-22 05:21:00,
2017-08-22 01:22:00,77.7,70.3,30.01,South,190,0.0,0.0,78,0.00,,---,0.00,0.00,VWS V14.01,2017-08-22 05:22:00,
2017-08-22 01:23:00,77.6,70.2,30.00,South,190,0.0,0.0,78,0.00,,---,0.00,0.00,VWS V14.01,2017-08-22 05:23:00,
2017-08-22 01:24:00,77.6,70.2,30.00,South,190,0.0,0.0,78,0.00,,---,0.00,0.00,VWS V14.01,2017-08-22 05:24:00,
2017-08-22 01:25:00,77.6,70.2,30.00,South,190,0.0,0.0,78,0.00,,---,0.00,0.00,VWS V14.01,2017-08-22 05:25:00,
2017-08-22 01:26:00,77.6,70.2,30.00,South,190,0.0,0.0,78,0.00,,---,0.00,0.00,VWS V14.01,2017-08-22 05:26:00,
2017-08-22 01:27:00,77.6,70.2,30.00,South,190,0.0,0.0,78,0.00,,---,0.00,0.00,VWS V14.01,2017-08-22 05:27:00,
2017-08-22 01:28:00,77.6,70.2,30.00,South,190,0.0,0.0,78,0.00,,---,0.00,0.00,VWS V14.01,2017-08-22 05:28:00,
2017-08-22 01:29:00,77.6,70.2,30.00,South,190,0.0,2.0,78,0.00,,---,0.00,0.00,VWS V14.01,2017-08-22 05:29:00,
2017-08-22 01:30:00,77.6,70.2,30.00,South,190,0.0,2.0,78,0.00,,---,0.00,0.00,VWS V14.01,2017-08-22 05:30:00,
2017-08-22 01:31:00,77.6,70.2,29.99,South,190,2.0,5.0,78,0.00,,---,0.00,0.00,VWS V14.01,2017-08-22 05:31:00,
2017-08-22 01:32:00,77.6,70.2,29.99,South,190,0.0,4.0,78,0.00,,---,0.00,0.00,VWS V14.01,2017-08-22 05:32:00,
2017-08-22 01:33:00,77.6,70.2,30.00,South,190,2.0,4.0,78,0.00,,---,0.00,0.00,VWS V14.01,2017-08-22 05:33:00,
2017-08-22 01:34:00,77.6,70.2,30.00,South,190,0.0,0.0,78,0.00,,---,0.00,0.00,VWS V14.01,2017-08-22 05:34:00,
2017-08-22 01:35:00,77.6,70.2,30.00,South,190,4.0,4.0,78,0.00,,---,0.00,0.00,VWS V14.01,2017-08-22 05:35:00,
2017-08-22 01:36:00,77.7,70.3,30.00,South,190,6.0,7.0,78,0.00,,---,0.00,0.00,VWS V14.01,2017-08-22 05:36:00,
2017-08-22 01:37:00,77.7,69.9,30.00,South,190,5.0,5.0,77,0.00,,---,0.00,0.00,VWS V14.01,2017-08-22 05:37:00,
2017-08-22 01:38:00,77.8,70.0,30.00,South,190,1.0,3.0,77,0.00,,---,0.00,0.00,VWS V14.01,2017-08-22 05:38:00,
2017-08-22 01:39:00,77.6,70.2,30.00,South,190,0.0,0.0,78,0.00,,---,0.00,0.00,VWS V14.01,2017-08-22 05:39:00,
2017-08-22 01:40:00,77.8,70.0,30.00,South,190,4.0,5.0,77,0.00,,---,0.00,0.00,VWS V14.01,2017-08-22 05:40:00,
2017-08-22 01:41:00,77.9,70.1,30.00,South,190,4.0,6.0,77,0.00,,---,0.00,0.00,VWS V14.01,2017-08-22 05:41:00,
2017-08-22 01:42:00,77.9,70.1,29.99,South,190,4.0,4.0,77,0.00,,---,0.00,0.00,VWS V14.01,2017-08-22 05:42:00,
2017-08-22 01:43:00,78.0,70.2,29.99,South,190,6.0,7.0,77,0.00,,---,0.00,0.00,VWS V14.01,2017-08-22 05:43:00,
2017-08-22 01:44:00,77.6,70.2,30.00,South,190,1.0,4.0,78,0.00,,---,0.00,0.00,VWS V14.01,2017-08-22 05:44:00,
2017-08-22 01:45:00,78.1,69.9,29.99,South,190,5.0,7.0,76,0.00,,---,0.00,0.00,VWS V14.01,2017-08-22 05:45:00,
2017-08-22 01:46:00,78.1,69.9,29.99,South,190,5.0,6.0,76,0.00,,---,0.00,0.00,VWS V14.01,2017-08-22 05:46:00,
2017-08-22 01:47:00,78.2,70.0,29.99,South,190,3.0,6.0,76,0.00,,---,0.00,0.00,VWS V14.01,2017-08-22 05:47:00,
2017-08-22 01:48:00,78.2,70.0,29.99,South,190,5.0,6.0,76,0.00,,---,0.00,0.00,VWS V14.01,2017-08-22 05:48:00,
2017-08-22 01:49:00,77.8,70.0,29.99,South,190,2.0,5.0,77,0.00,,---,0.00,0.00,VWS V14.01,2017-08-22 05:49:00,
2017-08-22 01:51:00,78.3,70.1,29.99,South,180,5.0,7.0,76,0.00,,---,0.00,0.00,VWS V14.01,2017-08-22 05:51:00,
2017-08-22 01:52:00,78.4,70.2,29.99,South,180,5.0,6.0,76,0.00,,---,0.00,0.00,VWS V14.01,2017-08-22 05:52:00,
2017-08-22 01:53:00,78.4,70.2,29.99,South,180,5.0,7.0,76,0.00,,---,0.00,0.00,VWS V14.01,2017-08-22 05:53:00,
2017-08-22 01:54:00,78.0,69.8,29.99,South,190,6.0,6.0,76,0.00,,---,0.00,0.00,VWS V14.01,2017-08-22 05:54:00,
2017-08-22 01:55:00,78.5,69.9,29.99,South,190,4.0,7.0,75,0.00,,---,0.00,0.00,VWS V14.01,2017-08-22 05:55:00,
2017-08-22 01:56:00,78.5,69.9,29.99,South,190,6.0,7.0,75,0.00,,---,0.00,0.00,VWS V14.01,2017-08-22 05:56:00,
2017-08-22 01:57:00,78.5,69.9,29.99,South,190,5.0,6.0,75,0.00,,---,0.00,0.00,VWS V14.01,2017-08-22 05:57:00,
2017-08-22 01:58:00,78.5,69.9,29.99,South,190,5.0,10.0,75,0.00,,---,0.00,0.00,VWS V14.01,2017-08-22 05:58:00,
2017-08-22 01:59:00,78.3,70.1,29.99,South,190,6.0,8.0,76,0.00,,---,0.00,0.00,VWS V14.01,2017-08-22 05:59:00,
2017-08-22 02:00:00,78.6,70.0,30.00,South,190,4.0,7.0,75,0.00,,---,0.00,0.00,VWS V14.01,2017-08-22 06:00:00,
2017-08-22 02:01:00,78.5,69.9,29.99,South,190,5.0,6.0,75,0.00,,---,0.00,0.00,VWS V14.01,2017-08-22 06:01:00,
2017-08-22 02:02:00,78.6,70.0,29.99,South,190,6.0,6.0,75,0.00,,---,0.00,0.00,VWS V14.01,2017-08-22 06:02:00,
2017-08-22 02:03:00,78.6,70.0,29.99,South,190,4.0,6.0,75,0.00,,---,0.00,0.00,VWS V14.01,2017-08-22 06:03:00,
2017-08-22 02:04:00,78.4,70.2,29.99,South,190,6.0,7.0,76,0.00,,---,0.00,0.00,VWS V14.01,2017-08-22 06:04:00,
2017-08-22 02:05:00,78.6,70.0,29.99,South,190,5.0,6.0,75,0.00,,---,0.00,0.00,VWS V14.01,2017-08-22 06:05:00,
2017-08-22 02:06:00,78.6,70.0,29.99,South,190,4.0,7.0,75,0.00,,---,0.00,0.00,VWS V14.01,2017-08-22 06:06:00,
2017-08-22 02:07:00,78.6,70.0,29.99,South,190,3.0,7.0,75,0.00,,---,0.00,0.00,VWS V14.01,2017-08-22 06:07:00,
2017-08-22 02:08:00,78.6,70.0,29.99,South,190,4.0,6.0,75,0.00,,---,0.00,0.00,VWS V14.01,2017-08-22 06:08:00,
2017-08-22 02:09:00,78.5,69.9,29.99,South,190,7.0,9.0,75,0.00,,---,0.00,0.00,VWS V14.01,2017-08-22 06:09:00,
2017-08-22 02:10:00,78.6,70.0,29.99,South,190,5.0,6.0,75,0.00,,---,0.00,0.00,VWS V14.01,2017-08-22 06:10:00,
2017-08-22 02:11:00,78.6,70.0,29.99,South,190,5.0,6.0,75,0.00,,---,0.00,0.00,VWS V14.01,2017-08-22 06:11:00,
2017-08-22 02:12:00,78.5,69.9,29.99,South,190,6.0,6.0,75,0.00,,---,0.00,0.00,VWS V14.01,2017-08-22 06:12:00,
2017-08-22 02:13:00,78.5,69.9,29.99,South,190,5.0,8.0,75,0.00,,---,0.00,0.00,VWS V14.01,2017-08-22 06:13:00,
2017-08-22 02:14:00,78.6,70.0,29.99,South,190,3.0,5.0,75,0.00,,---,0.00,0.00,VWS V14.01,2017-08-22 06:14:00,
2017-08-22 02:15:00,78.5,69.9,29.99,South,190,5.0,5.0,75,0.00,,---,0.00,0.00,VWS V14.01,2017-08-22 06:15:00,
2017-08-22 02:16:00,78.5,69.9,29.99,South,190,4.0,5.0,75,0.00,,---,0.00,0.00,VWS V14.01,2017-08-22 06:16:00,
2017-08-22 02:17:00,78.5,69.9,29.99,South,190,4.0,5.0,75,0.00,,---,0.00,0.00,VWS V14.01,2017-08-22 06:17:00,
2017-08-22 02:18:00,78.5,69.9,29.99,South,190,4.0,4.0,75,0.00,,---,0.00,0.00,VWS V14.01,2017-08-22 06:18:00,
2017-08-22 02:19:00,78.6,70.0,29.99,South,190,6.0,7.0,75,0.00,,---,0.00,0.00,VWS V14.01,2017-08-22 06:19:00,
2017-08-22 02:20:00,78.5,69.9,29.99,South,190,4.0,5.0,75,0.00,,---,0.00,0.00,VWS V14.01,2017-08-22 06:20:00,
2017-08-22 02:21:00,78.5,69.9,29.98,South,190,4.0,5.0,75,0.00,,---,0.00,0.00,VWS V14.01,2017-08-22 06:21:00,
2017-08-22 02:22:00,78.5,69.9,29.98,South,190,3.0,5.0,75,0.00,,---,0.00,0.00,VWS V14.01,2017-08-22 06:22:00,
2017-08-22 02:23:00,78.5,69.9,29.98,South,190,3.0,7.0,75,0.00,,---,0.00,0.00,VWS V14.01,2017-08-22 06:23:00,
2017-08-22 02:24:00,78.5,69.9,29.99,South,190,3.0,5.0,75,0.00,,---,0.00,0.00,VWS V14.01,2017-08-22 06:24:00,
2017-08-22 02:25:00,78.5,69.9,29.98,South,190,3.0,4.0,75,0.00,,---,0.00,0.00,VWS V14.01,2017-08-22 06:25:00,
2017-08-22 02:26:00,78.4,69.8,29.98,South,190,4.0,5.0,75,0.00,,---,0.00,0.00,VWS V14.01,2017-08-22 06:26:00,
2017-08-22 02:27:00,78.4,69.8,29.98,South,190,2.0,4.0,75,0.00,,---,0.00,0.00,VWS V14.01,2017-08-22 06:27:00,
2017-08-22 02:28:00,78.4,69.8,29.98,South,190,2.0,5.0,75,0.00,,---,0.00,0.00,VWS V14.01,2017-08-22 06:28:00,
2017-08-22 02:29:00,78.5,69.9,29.99,South,190,4.0,5.0,75,0.00,,---,0.00,0.00,VWS V14.01,2017-08-22 06:29:00,
2017-08-22 02:30:00,78.4,69.8,29.99,South,190,3.0,5.0,75,0.00,,---,0.00,0.00,VWS V14.01,2017-08-22 06:30:00,
2017-08-22 02:31:00,78.4,69.8,29.99,South,190,6.0,6.0,75,0.00,,---,0.00,0.00,VWS V14.01,2017-08-22 06:31:00,
2017-08-22 02:32:00,78.4,69.8,29.98,South,190,5.0,5.0,75,0.00,,---,0.00,0.00,VWS V14.01,2017-08-22 06:32:00,
2017-08-22 02:33:00,78.4,69.8,29.98,South,190,5.0,5.0,75,0.00,,---,0.00,0.00,VWS V14.01,2017-08-22 06:33:00,
2017-08-22 02:34:00,78.5,69.9,29.98,South,190,3.0,5.0,75,0.00,,---,0.00,0.00,VWS V14.01,2017-08-22 06:34:00,
2017-08-22 02:35:00,78.4,69.8,29.99,South,190,5.0,7.0,75,0.00,,---,0.00,0.00,VWS V14.01,2017-08-22 06:35:00,
2017-08-22 02:36:00,78.4,69.8,29.99,South,190,3.0,5.0,75,0.00,,---,0.00,0.00,VWS V14.01,2017-08-22 06:36:00,
2017-08-22 02:37:00,78.3,69.7,29.98,South,190,4.0,4.0,75,0.00,,---,0.00,0.00,VWS V14.01,2017-08-22 06:37:00,
2017-08-22 02:38:00,78.3,69.7,29.98,South,190,3.0,4.0,75,0.00,,---,0.00,0.00,VWS V14.01,2017-08-22 06:38:00,
2017-08-22 02:39:00,78.4,69.8,29.98,South,190,4.0,4.0,75,0.00,,---,0.00,0.00,VWS V14.01,2017-08-22 06:39:00,
2017-08-22 02:40:00,78.3,69.7,29.98,South,190,4.0,4.0,75,0.00,,---,0.00,0.00,VWS V14.01,2017-08-22 06:40:00,
2017-08-22 02:41:00,78.3,69.7,29.98,South,190,5.0,5.0,75,0.00,,---,0.00,0.00,VWS V14.01,2017-08-22 06:41:00,
2017-08-22 02:42:00,78.3,69.7,29.98,South,190,4.0,5.0,75,0.00,,---,0.00,0.00,VWS V14.01,2017-08-22 06:42:00,
2017-08-22 02:43:00,78.3,69.7,29.98,South,190,7.0,7.0,75,0.00,,---,0.00,0.00,VWS V14.01,2017-08-22 06:43:00,
2017-08-22 02:44:00,78.4,69.8,29.99,South,190,2.0,3.0,75,0.00,,---,0.00,0.00,VWS V14.01,2017-08-22 06:44:00,
2017-08-22 02:45:00,78.3,69.7,29.98,South,190,6.0,6.0,75,0.00,,---,0.00,0.00,VWS V14.01,2017-08-22 06:45:00,
2017-08-22 02:46:00,78.4,69.8,29.98,South,190,1.0,4.0,75,0.00,,---,0.00,0.00,VWS V14.01,2017-08-22 06:46:00,
2017-08-22 02:47:00,78.3,69.7,29.98,South,190,2.0,6.0,75,0.00,,---,0.00,0.00,VWS V14.01,2017-08-22 06:47:00,
2017-08-22 02:48:00,78.4,69.8,29.98,South,190,3.0,5.0,75,0.00,,---,0.00,0.00,VWS V14.01,2017-08-22 06:48:00,
2017-08-22 02:49:00,78.3,69.7,29.98,South,190,2.0,2.0,75,0.00,,---,0.00,0.00,VWS V14.01,2017-08-22 06:49:00,
2017-08-22 02:50:00,78.4,69.8,29.98,South,190,4.0,6.0,75,0.00,,---,0.00,0.00,VWS V14.01,2017-08-22 06:50:00,
2017-08-22 02:51:00,78.4,69.8,29.97,South,190,4.0,5.0,75,0.00,,---,0.00,0.00,VWS V14.01,2017-08-22 06:51:00,
2017-08-22 02:52:00,78.4,69.8,29.97,South,190,3.0,4.0,75,0.00,,---,0.00,0.00,VWS V14.01,2017-08-22 06:52:00,
2017-08-22 02:53:00,78.4,69.8,29.97,South,190,5.0,9.0,75,0.00,,---,0.00,0.00,VWS V14.01,2017-08-22 06:53:00,
2017-08-22 02:54:00,78.3,69.7,29.98,South,190,2.0,2.0,75,0.00,,---,0.00,0.00,VWS V14.01,2017-08-22 06:54:00,
2017-08-22 02:55:00,78.4,69.8,29.97,South,190,2.0,5.0,75,0.00,,---,0.00,0.00,VWS V14.01,2017-08-22 06:55:00,
2017-08-22 02:56:00,78.4,69.8,29.97,South,190,3.0,4.0,75,0.00,,---,0.00,0.00,VWS V14.01,2017-08-22 06:56:00,
2017-08-22 02:57:00,78.4,69.8,29.97,South,190,3.0,4.0,75,0.00,,---,0.00,0.00,VWS V14.01,2017-08-22 06:57:00,
2017-08-22 02:58:00,78.4,69.8,29.97,South,190,4.0,4.0,75,0.00,,---,0.00,0.00,VWS V14.01,2017-08-22 06:58:00,
2017-08-22 02:59:00,78.4,69.8,29.98,South,190,5.0,6.0,75,0.00,,---,0.00,0.00,VWS V14.01,2017-08-22 06:59:00,
2017-08-22 03:00:00,78.4,69.8,29.97,South,190,6.0,6.0,75,0.00,,---,0.00,0.00,VWS V14.01,2017-08-22 07:00:00,
2017-08-22 03:01:00,78.4,69.8,29.97,South,190,5.0,5.0,75,0.00,,---,0.00,0.00,VWS V14.01,2017-08-22 07:01:00,
2017-08-22 03:02:00,78.4,69.8,29.97,South,190,3.0,5.0,75,0.00,,---,0.00,0.00,VWS V14.01,2017-08-22 07:02:00,
2017-08-22 03:03:00,78.4,69.8,29.97,South,190,4.0,5.0,75,0.00,,---,0.00,0.00,VWS V14.01,2017-08-22 07:03:00,
2017-08-22 03:04:00,78.4,69.8,29.97,South,190,3.0,5.0,75,0.00,,---,0.00,0.00,VWS V14.01,2017-08-22 07:04:00,
2017-08-22 03:05:00,78.4,69.8,29.97,South,190,4.0,6.0,75,0.00,,---,0.00,0.00,VWS V14.01,2017-08-22 07:05:00,
2017-08-22 03:06:00,78.4,69.8,29.97,South,190,2.0,5.0,75,0.00,,---,0.00,0.00,VWS V14.01,2017-08-22 07:06:00,
2017-08-22 03:07:00,78.5,69.9,29.97,South,190,5.0,6.0,75,0.00,,---,0.00,0.00,VWS V14.01,2017-08-22 07:07:00,
2017-08-22 03:08:00,78.5,69.9,29.97,South,190,4.0,6.0,75,0.00,,---,0.00,0.00,VWS V14.01,2017-08-22 07:08:00,
2017-08-22 03:09:00,78.4,69.8,29.97,South,190,4.0,4.0,75,0.00,,---,0.00,0.00,VWS V14.01,2017-08-22 07:09:00,
2017-08-22 03:10:00,78.5,69.9,29.97,South,190,5.0,5.0,75,0.00,,---,0.00,0.00,VWS V14.01,2017-08-22 07:10:00,
2017-08-22 03:11:00,78.5,69.9,29.97,South,190,5.0,6.0,75,0.00,,---,0.00,0.00,VWS V14.01,2017-08-22 07:11:00,
2017-08-22 03:12:00,78.5,69.9,29.97,South,190,5.0,7.0,75,0.00,,---,0.00,0.00,VWS V14.01,2017-08-22 07:12:00,
2017-08-22 03:13:00,78.5,69.5,29.97,South,190,3.0,6.0,74,0.00,,---,0.00,0.00,VWS V14.01,2017-08-22 07:13:00,
2017-08-22 03:14:00,78.4,69.8,29.97,South,190,3.0,4.0,75,0.00,,---,0.00,0.00,VWS V14.01,2017-08-22 07:14:00,
2017-08-22 03:15:00,78.5,69.5,29.98,South,191,5.0,8.0,74,0.00,,---,0.00,0.00,VWS V14.01,2017-08-22 07:15:00,
2017-08-22 03:16:00,78.5,69.5,29.98,South,191,5.0,7.0,74,0.00,,---,0.00,0.00,VWS V14.01,2017-08-22 07:16:00,
2017-08-22 03:17:00,78.5,69.5,29.97,South,190,4.0,5.0,74,0.00,,---,0.00,0.00,VWS V14.01,2017-08-22 07:17:00,
2017-08-22 03:18:00,78.5,69.5,29.98,South,191,7.0,7.0,74,0.00,,---,0.00,0.00,VWS V14.01,2017-08-22 07:18:00,
2017-08-22 03:19:00,78.5,69.9,29.97,South,190,4.0,4.0,75,0.00,,---,0.00,0.00,VWS V14.01,2017-08-22 07:19:00,
2017-08-22 03:20:00,78.5,69.5,29.97,SSW,192,4.0,5.0,74,0.00,,---,0.00,0.00,VWS V14.01,2017-08-22 07:20:00,
2017-08-22 03:21:00,78.5,69.5,29.97,SSW,192,7.0,7.0,74,0.00,,---,0.00,0.00,VWS V14.01,2017-08-22 07:21:00,
2017-08-22 03:22:00,78.5,69.5,29.97,SSW,192,2.0,5.0,74,0.00,,---,0.00,0.00,VWS V14.01,2017-08-22 07:22:00,
2017-08-22 03:23:00,78.5,69.5,29.97,SSW,192,4.0,6.0,74,0.00,,---,0.00,0.00,VWS V14.01,2017-08-22 07:23:00,
2017-08-22 03:24:00,78.5,69.5,29.98,South,190,8.0,8.0,74,0.00,,---,0.00,0.00,VWS V14.01,2017-08-22 07:24:00,
2017-08-22 03:25:00,78.5,69.5,29.97,SSW,192,2.0,5.0,74,0.00,,---,0.00,0.00,VWS V14.01,2017-08-22 07:25:00,
2017-08-22 03:26:00,78.5,69.5,29.97,SSW,192,4.0,6.0,74,0.00,,---,0.00,0.00,VWS V14.01,2017-08-22 07:26:00,
2017-08-22 03:27:00,78.5,69.5,29.97,SSW,192,6.0,7.0,74,0.00,,---,0.00,0.00,VWS V14.01,2017-08-22 07:27:00,
2017-08-22 03:28:00,78.5,69.5,29.97,SSW,195,5.0,10.0,74,0.00,,---,0.00,0.00,VWS V14.01,2017-08-22 07:28:00,
2017-08-22 03:29:00,78.5,69.5,29.97,SSW,192,3.0,5.0,74,0.00,,---,0.00,0.00,VWS V14.01,2017-08-22 07:29:00,
2017-08-22 03:30:00,78.5,69.5,29.97,SSW,195,5.0,6.0,74,0.00,,---,0.00,0.00,VWS V14.01,2017-08-22 07:30:00,
2017-08-22 03:31:00,78.5,69.5,29.97,SSW,195,7.0,7.0,74,0.00,,---,0.00,0.00,VWS V14.01,2017-08-22 07:31:00,
2017-08-22 03:32:00,78.5,69.5,29.97,SSW,196,4.0,7.0,74,0.00,,---,0.00,0.00,VWS V14.01,2017-08-22 07:32:00,
2017-08-22 03:33:00,78.5,69.5,29.97,SSW,196,6.0,7.0,74,0.00,,---,0.00,0.00,VWS V14.01,2017-08-22 07:33:00,
2017-08-22 03:34:00,78.5,69.5,29.97,SSW,192,5.0,5.0,74,0.00,,---,0.00,0.00,VWS V14.01,2017-08-22 07:34:00,
2017-08-22 03:35:00,78.5,69.5,29.97,SSW,196,5.0,7.0,74,0.00,,---,0.00,0.00,VWS V14.01,2017-08-22 07:35:00,
2017-08-22 03:36:00,78.4,69.4,29.97,SSW,196,5.0,6.0,74,0.00,,---,0.00,0.00,VWS V14.01,2017-08-22 07:36:00,
2017-08-22 03:37:00,78.4,69.4,29.97,SSW,196,5.0,5.0,74,0.00,,---,0.00,0.00,VWS V14.01,2017-08-22 07:37:00,
2017-08-22 03:38:00,78.4,69.4,29.97,SSW,196,4.0,6.0,74,0.00,,---,0.00,0.00,VWS V14.01,2017-08-22 07:38:00,
2017-08-22 03:39:00,78.5,69.5,29.97,SSW,195,3.0,6.0,74,0.00,,---,0.00,0.00,VWS V14.01,2017-08-22 07:39:00,
2017-08-22 03:40:00,78.4,69.4,29.97,SSW,196,6.0,10.0,74,0.00,,---,0.00,0.00,VWS V14.01,2017-08-22 07:40:00,
2017-08-22 03:41:00,78.3,69.3,29.96,SSW,196,5.0,6.0,74,0.00,,---,0.00,0.00,VWS V14.01,2017-08-22 07:41:00,
2017-08-22 03:42:00,78.3,69.3,29.96,SSW,197,10.0,10.0,74,0.00,,---,0.00,0.00,VWS V14.01,2017-08-22 07:42:00,
2017-08-22 03:43:00,78.3,69.3,29.96,SSW,197,5.0,6.0,74,0.00,,---,0.00,0.00,VWS V14.01,2017-08-22 07:43:00,
2017-08-22 03:44:00,78.5,69.5,29.97,SSW,196,5.0,5.0,74,0.00,,---,0.00,0.00,VWS V14.01,2017-08-22 07:44:00,
2017-08-22 03:45:00,78.3,69.3,29.96,SSW,197,4.0,5.0,74,0.00,,---,0.00,0.00,VWS V14.01,2017-08-22 07:45:00,
2017-08-22 03:46:00,78.3,69.3,29.96,SSW,197,6.0,7.0,74,0.00,,---,0.00,0.00,VWS V14.01,2017-08-22 07:46:00,
2017-08-22 03:47:00,78.2,69.2,29.96,SSW,197,4.0,6.0,74,0.00,,---,0.00,0.00,VWS V14.01,2017-08-22 07:47:00,
2017-08-22 03:48:00,78.2,69.2,29.96,SSW,197,5.0,5.0,74,0.00,,---,0.00,0.00,VWS V14.01,2017-08-22 07:48:00,
2017-08-22 03:49:00,78.4,69.4,29.97,SSW,196,10.0,10.0,74,0.00,,---,0.00,0.00,VWS V14.01,2017-08-22 07:49:00,
2017-08-22 03:50:00,78.2,69.2,29.96,SSW,197,3.0,6.0,74,0.00,,---,0.00,0.00,VWS V14.01,2017-08-22 07:50:00,
2017-08-22 03:51:00,78.1,69.1,29.96,SSW,197,6.0,6.0,74,0.00,,---,0.00,0.00,VWS V14.01,2017-08-22 07:51:00,
2017-08-22 03:52:00,78.1,69.5,29.96,SSW,197,3.0,5.0,75,0.00,,---,0.00,0.00,VWS V14.01,2017-08-22 07:52:00,
2017-08-22 03:53:00,78.0,69.4,29.96,SSW,197,5.0,6.0,75,0.00,,---,0.00,0.00,VWS V14.01,2017-08-22 07:53:00,
2017-08-22 03:54:00,78.3,69.3,29.96,SSW,197,2.0,5.0,74,0.00,,---,0.00,0.00,VWS V14.01,2017-08-22 07:54:00,
2017-08-22 03:55:00,78.0,69.4,29.96,SSW,197,5.0,6.0,75,0.00,,---,0.00,0.00,VWS V14.01,2017-08-22 07:55:00,
2017-08-22 03:56:00,78.0,69.4,29.96,SSW,197,4.0,6.0,75,0.00,,---,0.00,0.00,VWS V14.01,2017-08-22 07:56:00,
2017-08-22 03:57:00,77.9,69.3,29.96,SSW,197,5.0,6.0,75,0.00,,---,0.00,0.00,VWS V14.01,2017-08-22 07:57:00,
2017-08-22 03:58:00,77.9,69.3,29.96,SSW,197,6.0,6.0,75,0.00,,---,0.00,0.00,VWS V14.01,2017-08-22 07:58:00,
2017-08-22 03:59:00,78.1,69.1,29.96,SSW,197,3.0,6.0,74,0.00,,---,0.00,0.00,VWS V14.01,2017-08-22 07:59:00,
2017-08-22 04:00:00,77.9,69.3,29.96,SSW,198,5.0,6.0,75,0.00,,---,0.00,0.00,VWS V14.01,2017-08-22 08:00:00,
2017-08-22 04:01:00,77.9,69.3,29.95,SSW,197,5.0,5.0,75,0.00,,---,0.00,0.00,VWS V14.01,2017-08-22 08:01:00,
2017-08-22 04:02:00,77.9,69.3,29.96,SSW,198,3.0,7.0,75,0.00,,---,0.00,0.00,VWS V14.01,2017-08-22 08:02:00,
2017-08-22 04:03:00,77.9,69.3,29.96,SSW,198,4.0,7.0,75,0.00,,---,0.00,0.00,VWS V14.01,2017-08-22 08:03:00,
2017-08-22 04:04:00,78.0,69.4,29.96,SSW,197,5.0,6.0,75,0.00,,---,0.00,0.00,VWS V14.01,2017-08-22 08:04:00,
2017-08-22 04:05:00,78.0,69.4,29.96,SSW,197,4.0,4.0,75,0.00,,---,0.00,0.00,VWS V14.01,2017-08-22 08:05:00,
2017-08-22 04:06:00,77.8,69.2,29.96,SSW,198,3.0,10.0,75,0.00,,---,0.00,0.00,VWS V14.01,2017-08-22 08:06:00,
2017-08-22 04:07:00,77.8,69.2,29.96,SSW,198,3.0,6.0,75,0.00,,---,0.00,0.00,VWS V14.01,2017-08-22 08:07:00,
2017-08-22 04:08:00,77.8,69.2,29.96,SSW,198,5.0,6.0,75,0.00,,---,0.00,0.00,VWS V14.01,2017-08-22 08:08:00,
2017-08-22 04:09:00,77.8,69.2,29.96,SSW,198,3.0,5.0,75,0.00,,---,0.00,0.00,VWS V14.01,2017-08-22 08:09:00,
2017-08-22 04:10:00,77.9,69.3,29.95,SSW,198,3.0,4.0,75,0.00,,---,0.00,0.00,VWS V14.01,2017-08-22 08:10:00,
2017-08-22 04:11:00,77.8,69.2,29.96,SSW,199,5.0,9.0,75,0.00,,---,0.00,0.00,VWS V14.01,2017-08-22 08:11:00,
2017-08-22 04:12:00,77.8,69.2,29.96,SSW,199,4.0,6.0,75,0.00,,---,0.00,0.00,VWS V14.01,2017-08-22 08:12:00,
2017-08-22 04:13:00,77.8,69.2,29.96,SSW,199,6.0,7.0,75,0.00,,---,0.00,0.00,VWS V14.01,2017-08-22 08:13:00,
2017-08-22 04:14:00,77.8,69.2,29.96,SSW,199,6.0,7.0,75,0.00,,---,0.00,0.00,VWS V14.01,2017-08-22 08:14:00,
2017-08-22 04:15:00,77.8,69.2,29.96,SSW,198,6.0,10.0,75,0.00,,---,0.00,0.00,VWS V14.01,2017-08-22 08:15:00,
2017-08-22 04:16:00,77.7,69.2,29.96,SSW,199,4.0,9.0,75,0.00,,---,0.00,0.00,VWS V14.01,2017-08-22 08:16:00,
2017-08-22 04:17:00,77.7,69.2,29.96,SSW,200,4.0,7.0,75,0.00,,---,0.00,0.00,VWS V14.01,2017-08-22 08:17:00,
2017-08-22 04:18:00,77.7,69.2,29.95,SSW,200,4.0,5.0,75,0.00,,---,0.00,0.00,VWS V14.01,2017-08-22 08:18:00,
2017-08-22 04:19:00,77.7,69.2,29.95,SSW,200,8.0,10.0,75,0.00,,---,0.00,0.00,VWS V14.01,2017-08-22 08:19:00,
2017-08-22 04:20:00,77.8,69.2,29.96,SSW,199,6.0,9.0,75,0.00,,---,0.00,0.00,VWS V14.01,2017-08-22 08:20:00,
2017-08-22 04:21:00,77.7,69.2,29.95,SSW,200,4.0,5.0,75,0.00,,---,0.00,0.00,VWS V14.01,2017-08-22 08:21:00,
2017-08-22 04:22:00,77.7,69.2,29.95,SSW,200,4.0,5.0,75,0.00,,---,0.00,0.00,VWS V14.01,2017-08-22 08:22:00,
2017-08-22 04:23:00,77.7,69.2,29.95,SSW,200,5.0,6.0,75,0.00,,---,0.00,0.00,VWS V14.01,2017-08-22 08:23:00,
2017-08-22 04:24:00,77.7,69.2,29.95,SSW,200,9.0,9.0,75,0.00,,---,0.00,0.00,VWS V14.01,2017-08-22 08:24:00,
2017-08-22 04:25:00,77.7,69.2,29.96,SSW,199,4.0,5.0,75,0.00,,---,0.00,0.00,VWS V14.01,2017-08-22 08:25:00,
2017-08-22 04:26:00,77.7,69.2,29.95,SSW,200,6.0,6.0,75,0.00,,---,0.00,0.00,VWS V14.01,2017-08-22 08:26:00,
2017-08-22 04:27:00,77.7,69.2,29.95,SSW,200,4.0,6.0,75,0.00,,---,0.00,0.00,VWS V14.01,2017-08-22 08:27:00,
2017-08-22 04:28:00,77.8,69.2,29.95,SSW,200,4.0,6.0,75,0.00,,---,0.00,0.00,VWS V14.01,2017-08-22 08:28:00,
2017-08-22 04:29:00,77.7,69.2,29.95,SSW,200,6.0,6.0,75,0.00,,---,0.00,0.00,VWS V14.01,2017-08-22 08:29:00,
2017-08-22 04:30:00,77.7,69.2,29.95,SSW,200,4.0,5.0,75,0.00,,---,0.00,0.00,VWS V14.01,2017-08-22 08:30:00,
2017-08-22 04:31:00,77.7,69.2,29.95,SSW,200,5.0,6.0,75,0.00,,---,0.00,0.00,VWS V14.01,2017-08-22 08:31:00,
2017-08-22 04:32:00,77.7,69.2,29.95,SSW,200,6.0,7.0,75,0.00,,---,0.00,0.00,VWS V14.01,2017-08-22 08:32:00,
2017-08-22 04:33:00,77.7,69.2,29.95,SSW,200,5.0,6.0,75,0.00,,---,0.00,0.00,VWS V14.01,2017-08-22 08:33:00,
2017-08-22 04:34:00,77.7,69.2,29.95,SSW,200,5.0,7.0,75,0.00,,---,0.00,0.00,VWS V14.01,2017-08-22 08:34:00,
2017-08-22 04:35:00,77.8,69.2,29.95,SSW,200,6.0,6.0,75,0.00,,---,0.00,0.00,VWS V14.01,2017-08-22 08:35:00,
2017-08-22 04:36:00,77.7,69.2,29.95,SSW,200,6.0,6.0,75,0.00,,---,0.00,0.00,VWS V14.01,2017-08-22 08:36:00,
2017-08-22 04:37:00,77.7,69.2,29.95,SSW,200,5.0,7.0,75,0.00,,---,0.00,0.00,VWS V14.01,2017-08-22 08:37:00,
2017-08-22 04:38:00,77.7,69.2,29.95,SSW,200,5.0,5.0,75,0.00,,---,0.00,0.00,VWS V14.01,2017-08-22 08:38:00,
2017-08-22 04:39:00,77.6,69.1,29.95,SSW,200,5.0,6.0,75,0.00,,---,0.00,0.00,VWS V14.01,2017-08-22 08:39:00,
2017-08-22 04:40:00,77.7,69.2,29.95,SSW,200,3.0,6.0,75,0.00,,---,0.00,0.00,VWS V14.01,2017-08-22 08:40:00,
2017-08-22 04:41:00,77.6,69.1,29.95,SSW,200,4.0,4.0,75,0.00,,---,0.00,0.00,VWS V14.01,2017-08-22 08:41:00,
2017-08-22 04:42:00,77.6,69.1,29.95,SSW,200,2.0,6.0,75,0.00,,---,0.00,0.00,VWS V14.01,2017-08-22 08:42:00,
2017-08-22 04:43:00,77.6,69.1,29.95,SSW,200,3.0,6.0,75,0.00,,---,0.00,0.00,VWS V14.01,2017-08-22 08:43:00,
2017-08-22 04:44:00,77.6,69.1,29.95,SSW,200,3.0,4.0,75,0.00,,---,0.00,0.00,VWS V14.01,2017-08-22 08:44:00,
2017-08-22 04:45:00,77.7,69.2,29.95,SSW,200,4.0,4.0,75,0.00,,---,0.00,0.00,VWS V14.01,2017-08-22 08:45:00,
2017-08-22 04:46:00,77.6,69.1,29.95,SSW,200,4.0,6.0,75,0.00,,---,0.00,0.00,VWS V14.01,2017-08-22 08:46:00,
2017-08-22 04:47:00,77.6,69.1,29.94,SSW,200,4.0,5.0,75,0.00,,---,0.00,0.00,VWS V14.01,2017-08-22 08:47:00,
2017-08-22 04:48:00,77.6,69.1,29.95,SSW,200,3.0,5.0,75,0.00,,---,0.00,0.00,VWS V14.01,2017-08-22 08:48:00,
2017-08-22 04:49:00,77.6,69.1,29.95,SSW,200,3.0,4.0,75,0.00,,---,0.00,0.00,VWS V14.01,2017-08-22 08:49:00,
2017-08-22 04:50:00,77.6,69.1,29.95,SSW,200,3.0,3.0,75,0.00,,---,0.00,0.00,VWS V14.01,2017-08-22 08:50:00,
2017-08-22 04:51:00,77.6,69.1,29.95,SSW,200,4.0,5.0,75,0.00,,---,0.00,0.00,VWS V14.01,2017-08-22 08:51:00,
2017-08-22 04:52:00,77.6,69.1,29.95,SSW,200,5.0,6.0,75,0.00,,---,0.00,0.00,VWS V14.01,2017-08-22 08:52:00,
2017-08-22 04:53:00,77.5,69.0,29.95,SSW,200,5.0,6.0,75,0.00,,---,0.00,0.00,VWS V14.01,2017-08-22 08:53:00,
2017-08-22 04:54:00,77.5,69.0,29.95,SSW,200,4.0,6.0,75,0.00,,---,0.00,0.00,VWS V14.01,2017-08-22 08:54:00,
2017-08-22 04:55:00,77.6,69.1,29.95,SSW,200,5.0,5.0,75,0.00,,---,0.00,0.00,VWS V14.01,2017-08-22 08:55:00,
2017-08-22 04:56:00,77.5,69.0,29.94,SSW,200,2.0,5.0,75,0.00,,---,0.00,0.00,VWS V14.01,2017-08-22 08:56:00,
2017-08-22 04:57:00,77.5,69.0,29.95,SSW,200,5.0,6.0,75,0.00,,---,0.00,0.00,VWS V14.01,2017-08-22 08:57:00,
2017-08-22 04:58:00,77.5,69.0,29.95,SSW,200,5.0,6.0,75,0.00,,---,0.00,0.00,VWS V14.01,2017-08-22 08:58:00,
2017-08-22 04:59:00,77.5,69.0,29.95,SSW,200,4.0,6.0,75,0.00,,---,0.00,0.00,VWS V14.01,2017-08-22 08:59:00,
2017-08-22 05:00:00,77.6,69.1,29.95,SSW,200,4.0,5.0,75,0.00,,---,0.00,0.00,VWS V14.01,2017-08-22 09:00:00,
2017-08-22 05:01:00,77.5,69.0,29.95,SSW,200,6.0,6.0,75,0.00,,---,0.00,0.00,VWS V14.01,2017-08-22 09:01:00,
2017-08-22 05:02:00,77.5,69.0,29.95,SSW,200,5.0,6.0,75,0.00,,---,0.00,0.00,VWS V14.01,2017-08-22 09:02:00,
2017-08-22 05:03:00,77.4,68.9,29.95,SSW,200,2.0,5.0,75,0.00,,---,0.00,0.00,VWS V14.01,2017-08-22 09:03:00,
2017-08-22 05:04:00,77.4,68.9,29.95,SSW,200,4.0,4.0,75,0.00,,---,0.00,0.00,VWS V14.01,2017-08-22 09:04:00,
2017-08-22 05:05:00,77.5,69.0,29.94,SSW,200,4.0,5.0,75,0.00,,---,0.00,0.00,VWS V14.01,2017-08-22 09:05:00,
2017-08-22 05:06:00,77.4,68.9,29.95,SSW,200,4.0,7.0,75,0.00,,---,0.00,0.00,VWS V14.01,2017-08-22 09:06:00,
2017-08-22 05:07:00,77.4,68.9,29.94,SSW,200,4.0,4.0,75,0.00,,---,0.00,0.00,VWS V14.01,2017-08-22 09:07:00,
2017-08-22 05:08:00,77.4,68.9,29.95,SSW,200,1.0,5.0,75,0.00,,---,0.00,0.00,VWS V14.01,2017-08-22 09:08:00,
2017-08-22 05:09:00,77.4,68.9,29.94,SSW,200,6.0,6.0,75,0.00,,---,0.00,0.00,VWS V14.01,2017-08-22 09:09:00,
2017-08-22 05:10:00,77.5,69.0,29.95,SSW,200,6.0,6.0,75,0.00,,---,0.00,0.00,VWS V14.01,2017-08-22 09:10:00,
2017-08-22 05:11:00,77.4,68.9,29.94,SSW,200,5.0,6.0,75,0.00,,---,0.00,0.00,VWS V14.01,2017-08-22 09:11:00,
2017-08-22 05:12:00,77.4,68.9,29.94,SSW,200,4.0,6.0,75,0.00,,---,0.00,0.00,VWS V14.01,2017-08-22 09:12:00,
2017-08-22 05:13:00,77.3,68.8,29.94,SSW,200,5.0,5.0,75,0.00,,---,0.00,0.00,VWS V14.01,2017-08-22 09:13:00,
2017-08-22 05:14:00,77.3,68.8,29.94,SSW,200,5.0,6.0,75,0.00,,---,0.00,0.00,VWS V14.01,2017-08-22 09:14:00,
2017-08-22 05:15:00,77.4,68.9,29.95,SSW,200,7.0,7.0,75,0.00,,---,0.00,0.00,VWS V14.01,2017-08-22 09:15:00,
2017-08-22 05:16:00,77.3,68.8,29.94,SSW,200,5.0,5.0,75,0.00,,---,0.00,0.00,VWS V14.01,2017-08-22 09:16:00,
2017-08-22 05:17:00,77.3,68.8,29.94,SSW,201,6.0,6.0,75,0.00,,---,0.00,0.00,VWS V14.01,2017-08-22 09:17:00,
2017-08-22 05:18:00,77.3,68.8,29.94,SSW,200,4.0,5.0,75,0.00,,---,0.00,0.00,VWS V14.01,2017-08-22 09:18:00,
2017-08-22 05:19:00,77.2,68.7,29.94,SSW,200,3.0,5.0,75,0.00,,---,0.00,0.00,VWS V14.01,2017-08-22 09:19:00,
2017-08-22 05:20:00,77.4,68.9,29.94,SSW,200,3.0,6.0,75,0.00,,---,0.00,0.00,VWS V14.01,2017-08-22 09:20:00,
2017-08-22 05:21:00,77.2,68.7,29.94,SSW,200,3.0,3.0,75,0.00,,---,0.00,0.00,VWS V14.01,2017-08-22 09:21:00,
2017-08-22 05:22:00,77.2,68.7,29.94,SSW,200,4.0,5.0,75,0.00,,---,0.00,0.00,VWS V14.01,2017-08-22 09:22:00,
2017-08-22 05:23:00,77.2,69.1,29.94,SSW,201,3.0,5.0,76,0.00,,---,0.00,0.00,VWS V14.01,2017-08-22 09:23:00,
2017-08-22 05:24:00,77.1,69.0,29.94,SSW,200,5.0,5.0,76,0.00,,---,0.00,0.00,VWS V14.01,2017-08-22 09:24:00,
2017-08-22 05:25:00,77.3,68.8,29.94,SSW,200,5.0,5.0,75,0.00,,---,0.00,0.00,VWS V14.01,2017-08-22 09:25:00,
2017-08-22 05:26:00,77.1,69.0,29.94,SSW,200,2.0,4.0,76,0.00,,---,0.00,0.00,VWS V14.01,2017-08-22 09:26:00,
2017-08-22 05:27:00,77.3,68.8,29.94,SSW,200,3.0,6.0,75,0.00,,---,0.00,0.00,VWS V14.01,2017-08-22 09:27:00,
2017-08-22 05:28:00,77.1,69.0,29.94,SSW,200,3.0,4.0,76,0.00,,---,0.00,0.00,VWS V14.01,2017-08-22 09:28:00,
2017-08-22 05:29:00,77.1,69.0,29.94,SSW,200,2.0,4.0,76,0.00,,---,0.00,0.00,VWS V14.01,2017-08-22 09:29:00,
2017-08-22 05:30:00,77.1,69.0,29.94,SSW,200,3.0,3.0,76,0.00,,---,0.00,0.00,VWS V14.01,2017-08-22 09:30:00,
2017-08-22 05:31:00,77.1,69.0,29.94,SSW,200,4.0,7.0,76,0.00,,---,0.00,0.00,VWS V14.01,2017-08-22 09:31:00,
2017-08-22 05:32:00,77.2,69.1,29.94,SSW,201,5.0,5.0,76,0.00,,---,0.00,0.00,VWS V14.01,2017-08-22 09:32:00,
2017-08-22 05:33:00,77.0,68.9,29.94,SSW,200,5.0,5.0,76,0.00,,---,0.00,0.00,VWS V14.01,2017-08-22 09:33:00,
2017-08-22 05:34:00,77.0,68.9,29.94,SSW,200,2.0,7.0,76,0.00,,---,0.00,0.00,VWS V14.01,2017-08-22 09:34:00,
2017-08-22 05:35:00,76.9,68.8,29.94,SSW,201,2.0,3.0,76,0.00,,---,0.00,0.00,VWS V14.01,2017-08-22 09:35:00,
2017-08-22 05:36:00,76.9,68.8,29.94,SSW,200,4.0,5.0,76,0.00,,---,0.00,0.00,VWS V14.01,2017-08-22 09:36:00,
2017-08-22 05:37:00,77.1,69.0,29.94,SSW,200,4.0,5.0,76,0.00,,---,0.00,0.00,VWS V14.01,2017-08-22 09:37:00,
2017-08-22 05:38:00,76.9,68.8,29.95,SSW,200,2.0,4.0,76,0.00,,---,0.00,0.00,VWS V14.01,2017-08-22 09:38:00,
2017-08-22 05:39:00,76.9,68.8,29.94,SSW,200,3.0,4.0,76,0.00,,---,0.00,0.00,VWS V14.01,2017-08-22 09:39:00,
2017-08-22 05:40:00,76.8,68.7,29.95,SSW,200,4.0,5.0,76,0.00,,---,0.00,0.00,VWS V14.01,2017-08-22 09:40:00,
2017-08-22 05:41:00,76.8,68.7,29.95,SSW,200,3.0,4.0,76,0.00,,---,0.00,0.00,VWS V14.01,2017-08-22 09:41:00,
2017-08-22 05:42:00,77.0,68.9,29.94,SSW,201,5.0,6.0,76,0.00,,---,0.00,0.00,VWS V14.01,2017-08-22 09:42:00,
2017-08-22 05:43:00,76.7,68.6,29.94,SSW,201,2.0,4.0,76,0.00,,---,0.00,0.00,VWS V14.01,2017-08-22 09:43:00,
2017-08-22 05:44:00,76.7,68.6,29.94,SSW,200,4.0,4.0,76,0.00,,---,0.00,0.00,VWS V14.01,2017-08-22 09:44:00,
2017-08-22 05:45:00,76.7,68.6,29.94,SSW,201,1.0,5.0,76,0.00,,---,0.00,0.00,VWS V14.01,2017-08-22 09:45:00,
2017-08-22 05:46:00,76.7,68.9,29.94,SSW,200,1.0,4.0,77,0.00,,---,0.00,0.00,VWS V14.01,2017-08-22 09:46:00,
2017-08-22 05:47:00,76.9,68.8,29.94,SSW,200,1.0,4.0,76,0.00,,---,0.00,0.00,VWS V14.01,2017-08-22 09:47:00,
2017-08-22 05:48:00,76.6,68.9,29.94,SSW,200,1.0,3.0,77,0.00,,---,0.00,0.00,VWS V14.01,2017-08-22 09:48:00,
2017-08-22 05:49:00,76.6,68.9,29.94,SSW,200,4.0,5.0,77,0.00,,---,0.00,0.00,VWS V14.01,2017-08-22 09:49:00,
2017-08-22 05:50:00,76.6,68.9,29.94,SSW,200,2.0,3.0,77,0.00,,---,0.00,0.00,VWS V14.01,2017-08-22 09:50:00,
2017-08-22 05:51:00,76.6,68.9,29.94,SSW,201,3.0,3.0,77,0.00,,---,0.00,0.00,VWS V14.01,2017-08-22 09:51:00,
2017-08-22 05:52:00,76.8,68.7,29.95,SSW,200,4.0,4.0,76,0.00,,---,0.00,0.00,VWS V14.01,2017-08-22 09:52:00,
2017-08-22 05:53:00,76.5,68.8,29.94,SSW,200,2.0,6.0,77,0.00,,---,0.00,0.00,VWS V14.01,2017-08-22 09:53:00,
2017-08-22 05:54:00,76.5,68.8,29.94,SSW,200,4.0,6.0,77,0.00,,---,0.00,0.00,VWS V14.01,2017-08-22 09:54:00,
2017-08-22 05:55:00,76.5,68.8,29.94,SSW,200,1.0,3.0,77,0.00,,---,0.00,0.00,VWS V14.01,2017-08-22 09:55:00,
2017-08-22 05:56:00,76.4,68.7,29.94,SSW,201,2.0,3.0,77,0.00,,---,0.00,0.00,VWS V14.01,2017-08-22 09:56:00,
2017-08-22 05:57:00,76.6,68.9,29.94,SSW,200,0.0,4.0,77,0.00,,---,0.00,0.00,VWS V14.01,2017-08-22 09:57:00,
2017-08-22 05:58:00,76.4,68.7,29.94,SSW,200,4.0,5.0,77,0.00,,---,0.00,0.00,VWS V14.01,2017-08-22 09:58:00,
2017-08-22 05:59:00,76.4,68.7,29.94,SSW,200,3.0,6.0,77,0.00,,---,0.00,0.00,VWS V14.01,2017-08-22 09:59:00,
2017-08-22 06:00:00,76.3,68.6,29.94,SSW,200,3.0,5.0,77,0.00,,---,0.00,0.00,VWS V14.01,2017-08-22 10:00:00,
2017-08-22 06:01:00,76.3,68.9,29.94,SSW,201,2.0,5.0,78,0.00,,---,0.00,0.00,VWS V14.01,2017-08-22 10:01:00,
2017-08-22 06:02:00,76.5,68.8,29.94,SSW,201,5.0,5.0,77,0.00,,---,0.00,0.00,VWS V14.01,2017-08-22 10:02:00,
2017-08-22 06:03:00,76.2,68.8,29.94,SSW,200,2.0,5.0,78,0.00,,---,0.00,0.00,VWS V14.01,2017-08-22 10:03:00,
2017-08-22 06:04:00,76.2,68.8,29.94,SSW,200,2.0,3.0,78,0.00,,---,0.00,0.00,VWS V14.01,2017-08-22 10:04:00,
2017-08-22 06:05:00,76.2,68.8,29.94,SSW,201,3.0,3.0,78,0.00,,---,0.00,0.00,VWS V14.01,2017-08-22 10:05:00,
2017-08-22 06:06:00,76.2,68.8,29.94,SSW,200,2.0,3.0,78,0.00,,---,0.00,0.00,VWS V14.01,2017-08-22 10:06:00,
2017-08-22 06:07:00,76.4,68.7,29.94,SSW,201,4.0,4.0,77,0.00,,---,0.00,0.00,VWS V14.01,2017-08-22 10:07:00,
2017-08-22 06:08:00,76.2,68.8,29.94,SSW,201,3.0,4.0,78,0.00,,---,0.00,0.00,VWS V14.01,2017-08-22 10:08:00,
2017-08-22 06:09:00,76.2,68.8,29.94,SSW,200,3.0,4.0,78,0.00,,---,0.00,0.00,VWS V14.01,2017-08-22 10:09:00,
2017-08-22 06:10:00,76.2,68.8,29.94,SSW,200,3.0,3.0,78,0.00,,---,0.00,0.00,VWS V14.01,2017-08-22 10:10:00,
2017-08-22 06:11:00,76.1,68.8,29.94,SSW,200,1.0,4.0,78,0.00,,---,0.00,0.00,VWS V14.01,2017-08-22 10:11:00,
2017-08-22 06:12:00,76.3,68.9,29.94,SSW,200,5.0,5.0,78,0.00,,---,0.00,0.00,VWS V14.01,2017-08-22 10:12:00,
2017-08-22 06:13:00,76.1,68.8,29.95,SSW,200,3.0,4.0,78,0.00,,---,0.00,0.00,VWS V14.01,2017-08-22 10:13:00,
2017-08-22 06:14:00,76.1,68.8,29.94,SSW,200,3.0,5.0,78,0.00,,---,0.00,0.00,VWS V14.01,2017-08-22 10:14:00,
2017-08-22 06:15:00,76.1,68.8,29.94,SSW,200,4.0,4.0,78,0.00,,---,0.00,0.00,VWS V14.01,2017-08-22 10:15:00,
2017-08-22 06:16:00,76.1,68.8,29.94,SSW,200,2.0,4.0,78,0.00,,---,0.00,0.00,VWS V14.01,2017-08-22 10:16:00,
2017-08-22 06:17:00,76.2,68.8,29.94,SSW,200,2.0,5.0,78,0.00,,---,0.00,0.00,VWS V14.01,2017-08-22 10:17:00,
2017-08-22 06:18:00,76.0,68.7,29.94,SSW,201,2.0,5.0,78,0.00,,---,0.00,0.00,VWS V14.01,2017-08-22 10:18:00,
2017-08-22 06:19:00,76.0,68.7,29.94,SSW,200,2.0,3.0,78,0.00,,---,0.00,0.00,VWS V14.01,2017-08-22 10:19:00,
2017-08-22 06:20:00,76.0,68.7,29.94,SSW,200,3.0,3.0,78,0.00,,---,0.00,0.00,VWS V14.01,2017-08-22 10:20:00,
2017-08-22 06:21:00,76.0,68.7,29.94,SSW,200,2.0,4.0,78,0.00,,---,0.00,0.00,VWS V14.01,2017-08-22 10:21:00,
2017-08-22 06:22:00,76.1,68.8,29.94,SSW,200,4.0,4.0,78,0.00,,---,0.00,0.00,VWS V14.01,2017-08-22 10:22:00,
2017-08-22 06:23:00,76.0,68.7,29.94,SSW,200,2.0,4.0,78,0.00,,---,0.00,0.00,VWS V14.01,2017-08-22 10:23:00,
2017-08-22 06:24:00,75.9,68.6,29.94,SSW,200,2.0,3.0,78,0.00,,---,0.00,0.00,VWS V14.01,2017-08-22 10:24:00,
2017-08-22 06:25:00,76.0,68.7,29.94,SSW,200,3.0,3.0,78,0.00,,---,0.00,0.00,VWS V14.01,2017-08-22 10:25:00,
2017-08-22 06:26:00,75.9,68.6,29.94,SSW,200,3.0,7.0,78,0.00,,---,0.00,0.00,VWS V14.01,2017-08-22 10:26:00,
2017-08-22 06:27:00,76.0,68.7,29.94,SSW,200,3.0,6.0,78,0.00,,---,0.00,0.00,VWS V14.01,2017-08-22 10:27:00,
2017-08-22 06:28:00,75.9,68.9,29.94,SSW,201,2.0,5.0,79,0.00,,---,0.00,0.00,VWS V14.01,2017-08-22 10:28:00,
2017-08-22 06:29:00,75.9,68.9,29.94,SSW,201,3.0,4.0,79,0.00,,---,0.00,0.00,VWS V14.01,2017-08-22 10:29:00,
2017-08-22 06:30:00,75.9,68.9,29.94,SSW,201,3.0,4.0,79,0.00,,---,0.00,0.00,VWS V14.01,2017-08-22 10:30:00,
2017-08-22 06:31:00,75.9,68.9,29.94,SSW,201,3.0,5.0,79,0.00,,---,0.00,0.00,VWS V14.01,2017-08-22 10:31:00,
2017-08-22 06:32:00,76.0,68.7,29.94,SSW,200,3.0,4.0,78,0.00,,---,0.00,0.00,VWS V14.01,2017-08-22 10:32:00,
2017-08-22 06:33:00,75.9,68.9,29.94,SSW,201,2.0,7.0,79,0.00,,---,0.00,0.00,VWS V14.01,2017-08-22 10:33:00,
2017-08-22 06:34:00,75.8,68.8,29.94,SSW,201,4.0,9.0,79,0.00,,---,0.00,0.00,VWS V14.01,2017-08-22 10:34:00,
2017-08-22 06:35:00,75.8,68.8,29.94,SSW,201,6.0,6.0,79,0.00,,---,0.00,0.00,VWS V14.01,2017-08-22 10:35:00,
2017-08-22 06:36:00,75.8,68.8,29.94,SSW,200,3.0,7.0,79,0.00,,---,0.00,0.00,VWS V14.01,2017-08-22 10:36:00,
2017-08-22 06:37:00,75.9,68.9,29.94,SSW,200,4.0,4.0,79,0.00,,---,0.00,0.00,VWS V14.01,2017-08-22 10:37:00,
2017-08-22 06:38:00,75.8,68.8,29.94,SSW,200,4.0,6.0,79,0.00,,---,0.00,0.00,VWS V14.01,2017-08-22 10:38:00,
2017-08-22 06:39:00,75.8,68.8,29.94,SSW,200,5.0,6.0,79,0.00,,---,0.00,0.00,VWS V14.01,2017-08-22 10:39:00,
2017-08-22 06:40:00,75.8,68.8,29.94,SSW,200,4.0,6.0,79,0.00,,---,0.00,0.00,VWS V14.01,2017-08-22 10:40:00,
2017-08-22 06:41:00,75.8,68.8,29.94,SSW,200,3.0,4.0,79,0.00,,---,0.00,0.00,VWS V14.01,2017-08-22 10:41:00,
2017-08-22 06:42:00,75.8,68.8,29.94,SSW,200,4.0,6.0,79,0.00,,---,0.00,0.00,VWS V14.01,2017-08-22 10:42:00,
2017-08-22 06:43:00,75.8,68.8,29.94,SSW,200,4.0,7.0,79,0.00,,---,0.00,0.00,VWS V14.01,2017-08-22 10:43:00,
2017-08-22 06:44:00,75.8,68.8,29.94,SSW,200,2.0,5.0,79,0.00,,---,0.00,0.00,VWS V14.01,2017-08-22 10:44:00,
2017-08-22 06:45:00,75.8,68.8,29.94,SSW,200,4.0,4.0,79,0.00,,---,0.00,0.00,VWS V14.01,2017-08-22 10:45:00,
2017-08-22 06:46:00,75.8,68.8,29.94,SSW,200,3.0,6.0,79,0.00,,---,0.00,0.00,VWS V14.01,2017-08-22 10:46:00,
2017-08-22 06:47:00,75.8,68.8,29.94,SSW,200,2.0,6.0,79,0.00,,---,0.00,0.00,VWS V14.01,2017-08-22 10:47:00,
2017-08-22 06:48:00,75.8,68.8,29.94,SSW,200,2.0,4.0,79,0.00,,---,0.00,0.00,VWS V14.01,2017-08-22 10:48:00,
2017-08-22 06:49:00,75.8,68.8,29.94,SSW,200,5.0,9.0,79,0.00,,---,0.00,0.00,VWS V14.01,2017-08-22 10:49:00,
2017-08-22 06:50:00,75.8,68.8,29.94,SSW,200,1.0,6.0,79,0.00,,---,0.00,0.00,VWS V14.01,2017-08-22 10:50:00,
2017-08-22 06:51:00,75.8,68.8,29.94,SSW,200,2.0,4.0,79,0.00,,---,0.00,0.00,VWS V14.01,2017-08-22 10:51:00,
2017-08-22 06:52:00,75.8,68.8,29.94,SSW,200,2.0,5.0,79,0.00,,---,0.00,0.00,VWS V14.01,2017-08-22 10:52:00,
2017-08-22 06:53:00,75.8,68.8,29.94,SSW,200,2.0,5.0,79,0.00,,---,0.00,7.00,VWS V14.01,2017-08-22 10:53:00,
2017-08-22 06:54:00,75.8,68.8,29.93,SSW,199,3.0,5.0,79,0.00,,---,0.00,7.00,VWS V14.01,2017-08-22 10:54:00,
2017-08-22 06:55:00,75.8,68.8,29.94,SSW,200,3.0,7.0,79,0.00,,---,0.00,7.00,VWS V14.01,2017-08-22 10:55:00,
2017-08-22 06:56:00,75.8,68.8,29.94,SSW,200,3.0,5.0,79,0.00,,---,0.00,9.00,VWS V14.01,2017-08-22 10:56:00,
2017-08-22 06:57:00,75.8,68.8,29.94,SSW,200,3.0,4.0,79,0.00,,---,0.00,0.00,VWS V14.01,2017-08-22 10:57:00,
2017-08-22 06:58:00,75.8,68.8,29.94,SSW,199,4.0,4.0,79,0.00,,---,0.00,11.00,VWS V14.01,2017-08-22 10:58:00,
2017-08-22 06:59:00,75.8,68.8,29.94,SSW,199,4.0,5.0,79,0.00,,---,0.00,12.00,VWS V14.01,2017-08-22 10:59:00,
2017-08-22 07:00:00,75.7,68.7,29.94,SSW,200,5.0,7.0,79,0.00,,---,0.00,14.00,VWS V14.01,2017-08-22 11:00:00,
2017-08-22 07:01:00,75.8,68.8,29.94,SSW,200,2.0,5.0,79,0.00,,---,0.00,14.00,VWS V14.01,2017-08-22 11:01:00,
2017-08-22 07:02:00,75.8,68.8,29.94,SSW,200,3.0,3.0,79,0.00,,---,0.00,5.00,VWS V14.01,2017-08-22 11:02:00,
2017-08-22 07:03:00,75.7,68.7,29.94,SSW,200,3.0,4.0,79,0.00,,---,0.00,16.00,VWS V14.01,2017-08-22 11:03:00,
2017-08-22 07:04:00,75.7,68.7,29.94,SSW,200,2.0,3.0,79,0.00,,---,0.00,18.00,VWS V14.01,2017-08-22 11:04:00,
2017-08-22 07:05:00,75.7,68.7,29.94,SSW,200,3.0,4.0,79,0.00,,---,0.00,21.00,VWS V14.01,2017-08-22 11:05:00,
2017-08-22 07:06:00,75.7,68.7,29.94,SSW,200,4.0,4.0,79,0.00,,---,0.00,23.00,VWS V14.01,2017-08-22 11:06:00,
2017-08-22 07:07:00,75.8,68.8,29.94,SSW,200,2.0,5.0,79,0.00,,---,0.00,11.00,VWS V14.01,2017-08-22 11:07:00,
2017-08-22 07:08:00,75.7,68.7,29.94,SSW,199,4.0,4.0,79,0.00,,---,0.00,26.00,VWS V14.01,2017-08-22 11:08:00,
2017-08-22 07:09:00,75.7,68.7,29.94,SSW,200,4.0,4.0,79,0.00,,---,0.00,28.00,VWS V14.01,2017-08-22 11:09:00,
2017-08-22 07:10:00,75.7,68.7,29.94,SSW,200,3.0,3.0,79,0.00,,---,0.00,30.00,VWS V14.01,2017-08-22 11:10:00,
2017-08-22 07:11:00,75.7,68.7,29.94,SSW,200,3.0,5.0,79,0.00,,---,0.00,30.00,VWS V14.01,2017-08-22 11:11:00,
2017-08-22 07:12:00,75.7,68.7,29.93,SSW,199,3.0,4.0,79,0.00,,---,0.00,16.00,VWS V14.01,2017-08-22 11:12:00,
2017-08-22 07:13:00,75.7,68.7,29.94,SSW,200,3.0,4.0,79,0.00,,---,0.00,33.00,VWS V14.01,2017-08-22 11:13:00,
2017-08-22 07:14:00,75.7,68.7,29.94,SSW,199,2.0,3.0,79,0.00,,---,0.00,35.00,VWS V14.01,2017-08-22 11:14:00,
2017-08-22 07:15:00,75.7,68.7,29.94,SSW,200,6.0,6.0,79,0.00,,---,0.00,37.00,VWS V14.01,2017-08-22 11:15:00,
2017-08-22 07:16:00,75.7,68.7,29.94,SSW,199,3.0,3.0,79,0.00,,---,0.00,37.00,VWS V14.01,2017-08-22 11:16:00,
2017-08-22 07:17:00,75.7,68.7,29.94,SSW,200,4.0,5.0,79,0.00,,---,0.00,25.00,VWS V14.01,2017-08-22 11:17:00,
2017-08-22 07:18:00,75.7,68.7,29.94,SSW,200,2.0,4.0,79,0.00,,---,0.00,37.00,VWS V14.01,2017-08-22 11:18:00,
2017-08-22 07:19:00,75.7,68.7,29.94,SSW,199,1.0,3.0,79,0.00,,---,0.00,37.00,VWS V14.01,2017-08-22 11:19:00,
2017-08-22 07:20:00,75.7,68.7,29.94,SSW,200,1.0,3.0,79,0.00,,---,0.00,39.00,VWS V14.01,2017-08-22 11:20:00,
2017-08-22 07:21:00,75.7,68.7,29.94,SSW,200,1.0,4.0,79,0.00,,---,0.00,42.00,VWS V14.01,2017-08-22 11:21:00,
2017-08-22 07:22:00,75.7,68.7,29.94,SSW,200,3.0,5.0,79,0.00,,---,0.00,32.00,VWS V14.01,2017-08-22 11:22:00,
2017-08-22 07:23:00,75.7,68.7,29.94,SSW,199,3.0,6.0,79,0.00,,---,0.00,51.00,VWS V14.01,2017-08-22 11:23:00,
2017-08-22 07:24:00,75.7,68.7,29.94,SSW,200,2.0,4.0,79,0.00,,---,0.00,49.00,VWS V14.01,2017-08-22 11:24:00,
2017-08-22 07:25:00,75.7,68.7,29.94,SSW,200,9.0,9.0,79,0.00,,---,0.00,49.00,VWS V14.01,2017-08-22 11:25:00,
2017-08-22 07:26:00,75.7,68.7,29.94,SSW,199,3.0,5.0,79,0.00,,---,0.00,51.00,VWS V14.01,2017-08-22 11:26:00,
2017-08-22 07:27:00,75.7,68.7,29.94,SSW,200,3.0,4.0,79,0.00,,---,0.00,37.00,VWS V14.01,2017-08-22 11:27:00,
2017-08-22 07:28:00,75.8,68.8,29.94,SSW,199,3.0,3.0,79,0.00,,---,0.00,58.00,VWS V14.01,2017-08-22 11:28:00,
2017-08-22 07:29:00,75.8,68.8,29.94,SSW,200,4.0,4.0,79,0.00,,---,0.00,58.00,VWS V14.01,2017-08-22 11:29:00,
2017-08-22 07:30:00,75.8,68.8,29.94,SSW,200,1.0,4.0,79,0.00,,---,0.00,58.00,VWS V14.01,2017-08-22 11:30:00,
2017-08-22 07:31:00,75.8,68.8,29.94,SSW,199,2.0,3.0,79,0.00,,---,0.00,62.00,VWS V14.01,2017-08-22 11:31:00,
2017-08-22 07:32:00,75.7,68.7,29.94,SSW,199,6.0,6.0,79,0.00,,---,0.00,49.00,VWS V14.01,2017-08-22 11:32:00,
2017-08-22 07:33:00,75.9,68.9,29.94,SSW,200,3.0,4.0,79,0.00,,---,0.00,63.00,VWS V14.01,2017-08-22 11:33:00,
2017-08-22 07:34:00,75.9,68.9,29.94,SSW,199,4.0,6.0,79,0.00,,---,0.00,74.00,VWS V14.01,2017-08-22 11:34:00,
2017-08-22 07:35:00,75.9,68.9,29.94,SSW,199,4.0,6.0,79,0.00,,---,0.00,83.00,VWS V14.01,2017-08-22 11:35:00,
2017-08-22 07:36:00,76.0,69.0,29.94,SSW,199,2.0,4.0,79,0.00,,---,0.00,84.00,VWS V14.01,2017-08-22 11:36:00,
2017-08-22 07:37:00,75.8,68.8,29.94,SSW,199,2.0,5.0,79,0.00,,---,0.00,58.00,VWS V14.01,2017-08-22 11:37:00,
2017-08-22 07:38:00,76.0,69.0,29.94,SSW,200,3.0,6.0,79,0.00,,---,0.00,90.00,VWS V14.01,2017-08-22 11:38:00,
2017-08-22 07:39:00,76.0,69.0,29.94,SSW,200,6.0,9.0,79,0.00,,---,0.00,93.00,VWS V14.01,2017-08-22 11:39:00,
2017-08-22 07:40:00,76.0,69.0,29.94,SSW,200,3.0,6.0,79,0.00,,---,0.00,97.00,VWS V14.01,2017-08-22 11:40:00,
2017-08-22 07:41:00,76.0,69.0,29.94,SSW,200,5.0,5.0,79,0.00,,---,0.00,97.00,VWS V14.01,2017-08-22 11:41:00,
2017-08-22 07:42:00,75.8,68.8,29.94,SSW,200,3.0,5.0,79,0.00,,---,0.00,63.00,VWS V14.01,2017-08-22 11:42:00,
2017-08-22 07:43:00,76.1,69.1,29.94,SSW,200,4.0,5.0,79,0.00,,---,0.00,83.00,VWS V14.01,2017-08-22 11:43:00,
2017-08-22 07:44:00,76.1,69.1,29.93,SSW,201,5.0,9.0,79,0.00,,---,0.00,83.00,VWS V14.01,2017-08-22 11:44:00,
2017-08-22 07:45:00,76.1,69.1,29.93,SSW,202,5.0,9.0,79,0.00,,---,0.00,83.00,VWS V14.01,2017-08-22 11:45:00,
2017-08-22 07:46:00,76.2,69.2,29.94,SSW,202,4.0,5.0,79,0.00,,---,0.00,97.00,VWS V14.01,2017-08-22 11:46:00,
2017-08-22 07:47:00,76.0,69.0,29.94,SSW,200,5.0,6.0,79,0.00,,---,0.00,90.00,VWS V14.01,2017-08-22 11:47:00,
2017-08-22 07:48:00,76.2,69.2,29.94,SSW,202,5.0,6.0,79,0.00,,---,0.00,107.00,VWS V14.01,2017-08-22 11:48:00,
2017-08-22 07:49:00,76.3,69.3,29.94,SSW,202,4.0,7.0,79,0.00,,---,0.00,113.00,VWS V14.01,2017-08-22 11:49:00,
2017-08-22 07:50:00,76.3,69.3,29.93,SSW,202,4.0,6.0,79,0.00,,---,0.00,121.00,VWS V14.01,2017-08-22 11:50:00,
2017-08-22 07:51:00,76.4,69.4,29.93,SSW,202,2.0,3.0,79,0.00,,---,0.00,128.00,VWS V14.01,2017-08-22 11:51:00,
2017-08-22 07:52:00,76.1,69.1,29.94,SSW,200,4.0,5.0,79,0.00,,---,0.00,83.00,VWS V14.01,2017-08-22 11:52:00,
2017-08-22 07:53:00,76.4,69.4,29.93,SSW,202,5.0,9.0,79,0.00,,---,0.00,139.00,VWS V14.01,2017-08-22 11:53:00,
2017-08-22 07:54:00,76.5,69.5,29.93,SSW,202,6.0,7.0,79,0.00,,---,0.00,132.00,VWS V14.01,2017-08-22 11:54:00,
2017-08-22 07:55:00,76.5,69.5,29.93,SSW,202,7.0,7.0,79,0.00,,---,0.00,125.00,VWS V14.01,2017-08-22 11:55:00,
2017-08-22 07:56:00,76.6,69.6,29.93,SSW,202,5.0,8.0,79,0.00,,---,0.00,113.00,VWS V14.01,2017-08-22 11:56:00,
2017-08-22 07:57:00,76.2,69.2,29.94,SSW,202,5.0,6.0,79,0.00,,---,0.00,107.00,VWS V14.01,2017-08-22 11:57:00,
2017-08-22 07:58:00,76.7,69.3,29.93,SSW,202,2.0,4.0,78,0.00,,---,0.00,93.00,VWS V14.01,2017-08-22 11:58:00,
2017-08-22 07:59:00,76.7,69.3,29.93,SSW,202,2.0,5.0,78,0.00,,---,0.00,141.00,VWS V14.01,2017-08-22 11:59:00,
2017-08-22 08:00:00,76.7,69.3,29.93,SSW,203,7.0,7.0,78,0.00,,---,0.00,141.00,VWS V14.01,2017-08-22 12:00:00,
2017-08-22 08:01:00,76.7,69.3,29.93,SSW,203,6.0,6.0,78,0.00,,---,0.00,151.00,VWS V14.01,2017-08-22 12:01:00,
2017-08-22 08:02:00,76.4,69.4,29.93,SSW,202,7.0,9.0,79,0.00,,---,0.00,139.00,VWS V14.01,2017-08-22 12:02:00,
2017-08-22 08:03:00,76.9,69.5,29.93,SSW,196,6.0,8.0,78,0.00,,---,0.00,142.00,VWS V14.01,2017-08-22 12:03:00,
2017-08-22 08:04:00,76.9,69.5,29.93,SSW,196,4.0,4.0,78,0.00,,---,0.00,144.00,VWS V14.01,2017-08-22 12:04:00,
2017-08-22 08:05:00,76.9,69.5,29.93,SSW,196,7.0,9.0,78,0.00,,---,0.00,148.00,VWS V14.01,2017-08-22 12:05:00,
2017-08-22 08:06:00,77.0,69.6,29.93,SSW,196,5.0,5.0,78,0.00,,---,0.00,153.00,VWS V14.01,2017-08-22 12:06:00,
2017-08-22 08:07:00,76.6,69.2,29.93,SSW,202,4.0,4.0,78,0.00,,---,0.00,127.00,VWS V14.01,2017-08-22 12:07:00,
2017-08-22 08:08:00,77.1,69.7,29.93,SSW,196,5.0,6.0,78,0.00,,---,0.00,158.00,VWS V14.01,2017-08-22 12:08:00,
2017-08-22 08:09:00,77.1,69.7,29.93,SSW,196,4.0,5.0,78,0.00,,---,0.00,153.00,VWS V14.01,2017-08-22 12:09:00,
2017-08-22 08:10:00,77.2,69.8,29.93,SSW,196,4.0,6.0,78,0.00,,---,0.00,141.00,VWS V14.01,2017-08-22 12:10:00,
2017-08-22 08:11:00,77.3,69.9,29.93,SSW,197,3.0,6.0,78,0.00,,---,0.00,151.00,VWS V14.01,2017-08-22 12:11:00,
2017-08-22 08:12:00,76.8,69.4,29.93,SSW,196,3.0,8.0,78,0.00,,---,0.00,132.00,VWS V14.01,2017-08-22 12:12:00,
2017-08-22 08:13:00,77.4,70.0,29.93,SSW,198,5.0,9.0,78,0.00,,---,0.00,158.00,VWS V14.01,2017-08-22 12:13:00,
2017-08-22 08:14:00,77.5,69.7,29.93,SSW,198,4.0,6.0,77,0.00,,---,0.00,158.00,VWS V14.01,2017-08-22 12:14:00,
2017-08-22 08:15:00,77.5,69.7,29.93,SSW,198,4.0,4.0,77,0.00,,---,0.00,114.00,VWS V14.01,2017-08-22 12:15:00,
2017-08-22 08:16:00,77.6,69.8,29.93,SSW,198,4.0,7.0,77,0.00,,---,0.00,121.00,VWS V14.01,2017-08-22 12:16:00,
2017-08-22 08:17:00,77.1,69.7,29.93,SSW,196,6.0,6.0,78,0.00,,---,0.00,158.00,VWS V14.01,2017-08-22 12:17:00,
2017-08-22 08:18:00,77.6,69.8,29.93,SSW,199,6.0,10.0,77,0.00,,---,0.00,149.00,VWS V14.01,2017-08-22 12:18:00,
2017-08-22 08:19:00,77.7,69.9,29.92,SSW,199,9.0,9.0,77,0.00,,---,0.00,211.00,VWS V14.01,2017-08-22 12:19:00,
2017-08-22 08:20:00,77.7,69.9,29.92,SSW,198,2.0,6.0,77,0.00,,---,0.00,214.00,VWS V14.01,2017-08-22 12:20:00,
2017-08-22 08:21:00,77.7,69.9,29.92,SSW,198,2.0,5.0,77,0.00,,---,0.00,195.00,VWS V14.01,2017-08-22 12:21:00,
2017-08-22 08:22:00,77.4,70.0,29.93,SSW,198,5.0,9.0,78,0.00,,---,0.00,158.00,VWS V14.01,2017-08-22 12:22:00,
2017-08-22 08:23:00,77.8,70.0,29.92,SSW,198,5.0,5.0,77,0.00,,---,0.00,225.00,VWS V14.01,2017-08-22 12:23:00,
2017-08-22 08:24:00,77.9,70.1,29.92,SSW,198,4.0,6.0,77,0.00,,---,0.00,225.00,VWS V14.01,2017-08-22 12:24:00,
2017-08-22 08:25:00,78.0,70.2,29.93,SSW,198,3.0,4.0,77,0.00,,---,0.00,223.00,VWS V14.01,2017-08-22 12:25:00,
2017-08-22 08:26:00,78.0,70.2,29.93,SSW,196,5.0,10.0,77,0.00,,---,0.00,229.00,VWS V14.01,2017-08-22 12:26:00,
2017-08-22 08:27:00,77.6,69.8,29.93,SSW,199,6.0,10.0,77,0.00,,---,0.00,149.00,VWS V14.01,2017-08-22 12:27:00,
2017-08-22 08:28:00,78.2,70.0,29.93,SSW,196,5.0,6.0,76,0.00,,---,0.00,230.00,VWS V14.01,2017-08-22 12:28:00,
2017-08-22 08:29:00,78.2,70.0,29.93,SSW,196,4.0,6.0,76,0.00,,---,0.00,250.00,VWS V14.01,2017-08-22 12:29:00,
2017-08-22 08:30:00,78.3,70.1,29.93,SSW,196,5.0,6.0,76,0.00,,---,0.00,253.00,VWS V14.01,2017-08-22 12:30:00,
2017-08-22 08:31:00,78.4,70.2,29.93,SSW,196,4.0,6.0,76,0.00,,---,0.00,255.00,VWS V14.01,2017-08-22 12:31:00,
2017-08-22 08:32:00,78.4,70.2,29.93,SSW,196,5.0,6.0,76,0.00,,---,0.00,255.00,VWS V14.01,2017-08-22 12:32:00,
2017-08-22 08:33:00,77.8,70.0,29.92,SSW,199,3.0,5.0,77,0.00,,---,0.00,225.00,VWS V14.01,2017-08-22 12:33:00,
2017-08-22 08:34:00,78.6,70.4,29.93,SSW,192,6.0,6.0,76,0.00,,---,0.00,264.00,VWS V14.01,2017-08-22 12:34:00,
2017-08-22 08:35:00,78.7,70.5,29.93,SSW,193,7.0,9.0,76,0.00,,---,0.00,260.00,VWS V14.01,2017-08-22 12:35:00,
2017-08-22 08:36:00,78.7,70.5,29.92,SSW,194,9.0,10.0,76,0.00,,---,0.00,260.00,VWS V14.01,2017-08-22 12:36:00,
2017-08-22 08:37:00,78.8,70.2,29.92,SSW,194,4.0,6.0,75,0.00,,---,0.00,269.00,VWS V14.01,2017-08-22 12:37:00,
2017-08-22 08:38:00,78.2,70.0,29.93,SSW,196,3.0,6.0,76,0.00,,---,0.00,230.00,VWS V14.01,2017-08-22 12:38:00,
2017-08-22 08:39:00,79.0,70.4,29.92,SSW,196,5.0,6.0,75,0.00,,---,0.00,281.00,VWS V14.01,2017-08-22 12:39:00,
2017-08-22 08:40:00,79.1,70.5,29.93,SSW,196,6.0,9.0,75,0.00,,---,0.00,288.00,VWS V14.01,2017-08-22 12:40:00,
2017-08-22 08:41:00,79.1,70.5,29.93,SSW,196,6.0,9.0,75,0.00,,---,0.00,288.00,VWS V14.01,2017-08-22 12:41:00,
2017-08-22 08:42:00,79.3,70.7,29.93,SSW,197,6.0,7.0,75,0.00,,---,0.00,290.00,VWS V14.01,2017-08-22 12:42:00,
2017-08-22 08:43:00,78.5,70.3,29.93,SSW,192,4.0,9.0,76,0.00,,---,0.00,260.00,VWS V14.01,2017-08-22 12:43:00,
2017-08-22 08:44:00,79.4,70.8,29.93,SSW,197,4.0,9.0,75,0.00,,---,0.00,294.00,VWS V14.01,2017-08-22 12:44:00,
2017-08-22 08:45:00,79.5,70.9,29.93,SSW,197,4.0,6.0,75,0.00,,---,0.00,299.00,VWS V14.01,2017-08-22 12:45:00,
2017-08-22 08:46:00,79.6,71.0,29.93,SSW,198,2.0,7.0,75,0.00,,---,0.00,302.00,VWS V14.01,2017-08-22 12:46:00,
2017-08-22 08:47:00,79.7,70.7,29.93,SSW,198,5.0,8.0,74,0.00,,---,0.00,302.00,VWS V14.01,2017-08-22 12:47:00,
2017-08-22 08:48:00,78.9,70.3,29.92,SSW,196,3.0,10.0,75,0.00,,---,0.00,279.00,VWS V14.01,2017-08-22 12:48:00,
2017-08-22 08:49:00,79.8,70.8,29.93,SSW,198,9.0,9.0,74,0.00,,---,0.00,304.00,VWS V14.01,2017-08-22 12:49:00,
2017-08-22 08:50:00,79.9,70.9,29.93,SSW,198,6.0,6.0,74,0.00,,---,0.00,302.00,VWS V14.01,2017-08-22 12:50:00,
2017-08-22 08:51:00,80.0,71.0,29.93,SSW,198,4.0,6.0,74,0.00,,---,0.00,318.00,VWS V14.01,2017-08-22 12:51:00,
2017-08-22 08:52:00,80.1,71.1,29.93,SSW,200,6.0,10.0,74,0.00,,---,0.00,315.00,VWS V14.01,2017-08-22 12:52:00,
2017-08-22 08:53:00,79.4,70.8,29.93,SSW,197,7.0,7.0,75,0.00,,---,0.00,294.00,VWS V14.01,2017-08-22 12:53:00,
2017-08-22 08:54:00,80.3,71.3,29.93,SSW,200,4.0,4.0,74,0.00,,---,0.00,323.00,VWS V14.01,2017-08-22 12:54:00,
2017-08-22 08:55:00,80.4,71.4,29.93,SSW,200,4.0,5.0,74,0.00,,---,0.00,313.00,VWS V14.01,2017-08-22 12:55:00,
2017-08-22 08:56:00,80.5,71.5,29.93,SSW,211,9.0,11.0,74,0.00,,---,0.00,323.00,VWS V14.01,2017-08-22 12:56:00,
2017-08-22 08:57:00,80.6,71.2,29.93,SW,220,10.0,11.0,73,0.00,,---,0.00,292.00,VWS V14.01,2017-08-22 12:57:00,
2017-08-22 08:58:00,79.8,70.8,29.93,SSW,198,5.0,6.0,74,0.00,,---,0.00,304.00,VWS V14.01,2017-08-22 12:58:00,
2017-08-22 08:59:00,80.7,71.2,29.93,SW,221,7.0,10.0,73,0.00,,---,0.00,278.00,VWS V14.01,2017-08-22 12:59:00,
2017-08-22 09:00:00,80.9,71.4,29.93,SW,224,5.0,10.0,73,0.00,,---,0.00,274.00,VWS V14.01,2017-08-22 13:00:00,
2017-08-22 09:01:00,81.0,71.1,29.93,SW,221,6.0,13.0,72,0.00,,---,0.00,258.00,VWS V14.01,2017-08-22 13:01:00,
2017-08-22 09:02:00,81.0,71.1,29.93,SW,221,4.0,9.0,72,0.00,,---,0.00,276.00,VWS V14.01,2017-08-22 13:02:00,
2017-08-22 09:03:00,80.2,71.2,29.93,SSW,200,1.0,1.0,74,0.00,,---,0.00,323.00,VWS V14.01,2017-08-22 13:03:00,
2017-08-22 09:04:00,81.2,71.3,29.93,SW,220,9.0,10.0,72,0.00,,---,0.00,330.00,VWS V14.01,2017-08-22 13:04:00,
2017-08-22 09:05:00,81.3,71.4,29.93,SW,221,5.0,12.0,72,0.00,,---,0.00,313.00,VWS V14.01,2017-08-22 13:05:00,
2017-08-22 09:06:00,81.4,71.5,29.92,SW,221,4.0,8.0,72,0.00,,---,0.00,287.00,VWS V14.01,2017-08-22 13:06:00,
2017-08-22 09:07:00,81.5,71.6,29.93,SW,218,5.0,12.0,72,0.00,,---,0.00,287.00,VWS V14.01,2017-08-22 13:07:00,
2017-08-22 09:08:00,80.7,71.2,29.93,SW,222,7.0,7.0,73,0.00,,---,0.00,278.00,VWS V14.01,2017-08-22 13:08:00,
2017-08-22 09:09:00,81.7,71.8,29.93,SW,222,6.0,11.0,72,0.00,,---,0.00,422.00,VWS V14.01,2017-08-22 13:09:00,
2017-08-22 09:10:00,81.8,71.9,29.93,SW,222,4.0,7.0,72,0.00,,---,0.00,455.00,VWS V14.01,2017-08-22 13:10:00,
2017-08-22 09:11:00,81.9,72.0,29.93,SW,223,4.0,7.0,72,0.00,,---,0.00,455.00,VWS V14.01,2017-08-22 13:11:00,
2017-08-22 09:12:00,82.0,71.7,29.92,SW,221,11.0,11.0,71,0.00,,---,0.00,455.00,VWS V14.01,2017-08-22 13:12:00,
2017-08-22 09:13:00,81.1,71.2,29.93,SW,221,5.0,6.0,72,0.00,,---,0.00,290.00,VWS V14.01,2017-08-22 13:13:00,
2017-08-22 09:14:00,82.1,71.8,29.92,SW,230,7.0,7.0,71,0.00,,---,0.00,388.00,VWS V14.01,2017-08-22 13:14:00,
2017-08-22 09:15:00,81.3,71.4,29.92,SW,221,6.0,8.0,72,0.00,,---,0.00,287.00,VWS V14.01,2017-08-22 13:15:00,
2017-08-22 09:16:00,82.3,72.0,29.92,SW,222,9.0,10.0,71,0.00,,---,0.00,415.00,VWS V14.01,2017-08-22 13:16:00,
2017-08-22 09:17:00,82.4,72.1,29.92,SW,217,7.0,13.0,71,0.00,,---,0.00,415.00,VWS V14.01,2017-08-22 13:17:00,
2017-08-22 09:18:00,82.5,72.2,29.93,SW,219,14.0,14.0,71,0.00,,---,0.00,415.00,VWS V14.01,2017-08-22 13:18:00,
2017-08-22 09:19:00,82.5,72.2,29.92,SW,217,6.0,10.0,71,0.00,,---,0.00,185.00,VWS V14.01,2017-08-22 13:19:00,
2017-08-22 09:20:00,81.9,72.0,29.93,SW,223,5.0,7.0,72,0.00,,---,0.00,455.00,VWS V14.01,2017-08-22 13:20:00,
2017-08-22 09:21:00,82.5,72.2,29.92,SW,222,10.0,10.0,71,0.00,,---,0.00,204.00,VWS V14.01,2017-08-22 13:21:00,
2017-08-22 09:22:00,82.5,72.2,29.92,SW,225,7.0,11.0,71,0.00,,---,0.00,251.00,VWS V14.01,2017-08-22 13:22:00,
2017-08-22 09:23:00,82.4,72.1,29.92,SW,223,11.0,11.0,71,0.00,,---,0.00,255.00,VWS V14.01,2017-08-22 13:23:00,
2017-08-22 09:24:00,82.4,72.1,29.92,SW,218,9.0,15.0,71,0.00,,---,0.00,308.00,VWS V14.01,2017-08-22 13:24:00,
2017-08-22 09:25:00,82.3,72.0,29.92,SW,222,5.0,10.0,71,0.00,,---,0.00,415.00,VWS V14.01,2017-08-22 13:25:00,
2017-08-22 09:26:00,82.3,72.0,29.92,SW,221,4.0,11.0,71,0.00,,---,0.00,287.00,VWS V14.01,2017-08-22 13:26:00,
2017-08-22 09:27:00,82.4,72.1,29.92,SSW,209,3.0,11.0,71,0.00,,---,0.00,287.00,VWS V14.01,2017-08-22 13:27:00,
2017-08-22 09:28:00,82.4,72.1,29.92,SW,221,5.0,11.0,71,0.00,,---,0.00,320.00,VWS V14.01,2017-08-22 13:28:00,
2017-08-22 09:29:00,82.5,72.2,29.92,SW,224,6.0,8.0,71,0.00,,---,0.00,371.00,VWS V14.01,2017-08-22 13:29:00,
2017-08-22 09:30:00,82.5,72.2,29.92,SW,225,7.0,7.0,71,0.00,,---,0.00,371.00,VWS V14.01,2017-08-22 13:30:00,
2017-08-22 09:31:00,82.5,72.2,29.92,SW,224,10.0,13.0,71,0.00,,---,0.00,204.00,VWS V14.01,2017-08-22 13:31:00,
2017-08-22 09:32:00,82.6,72.2,29.92,SW,223,6.0,7.0,71,0.00,,---,0.00,79.00,VWS V14.01,2017-08-22 13:32:00,
2017-08-22 09:33:00,82.6,72.2,29.92,SW,216,7.0,12.0,71,0.00,,---,0.00,86.00,VWS V14.01,2017-08-22 13:33:00,
2017-08-22 09:34:00,82.6,72.2,29.92,SW,216,4.0,7.0,71,0.00,,---,0.00,104.00,VWS V14.01,2017-08-22 13:34:00,
2017-08-22 09:35:00,82.6,72.2,29.92,SSW,213,5.0,9.0,71,0.00,,---,0.00,116.00,VWS V14.01,2017-08-22 13:35:00,
2017-08-22 09:36:00,82.4,72.1,29.92,SW,220,7.0,11.0,71,0.00,,---,0.00,287.00,VWS V14.01,2017-08-22 13:36:00,
2017-08-22 09:37:00,82.5,72.2,29.92,SW,217,6.0,10.0,71,0.00,,---,0.00,98.00,VWS V14.01,2017-08-22 13:37:00,
2017-08-22 09:38:00,82.4,72.1,29.92,SW,219,6.0,7.0,71,0.00,,---,0.00,91.00,VWS V14.01,2017-08-22 13:38:00,
2017-08-22 09:39:00,82.3,72.0,29.92,WSW,242,10.0,11.0,71,0.00,,---,0.00,90.00,VWS V14.01,2017-08-22 13:39:00,
2017-08-22 09:40:00,82.3,72.0,29.92,WSW,240,6.0,8.0,71,0.00,,---,0.00,90.00,VWS V14.01,2017-08-22 13:40:00,
2017-08-22 09:41:00,82.5,72.2,29.92,SW,222,7.0,7.0,71,0.00,,---,0.00,81.00,VWS V14.01,2017-08-22 13:41:00,
2017-08-22 09:42:00,82.1,72.2,29.91,WSW,240,6.0,9.0,72,0.00,,---,0.00,111.00,VWS V14.01,2017-08-22 13:42:00,
2017-08-22 09:43:00,82.1,72.2,29.91,SW,233,9.0,9.0,72,0.00,,---,0.00,195.00,VWS V14.01,2017-08-22 13:43:00,
2017-08-22 09:44:00,82.0,72.1,29.91,SW,232,7.0,10.0,72,0.00,,---,0.00,137.00,VWS V14.01,2017-08-22 13:44:00,
2017-08-22 09:45:00,82.0,72.1,29.91,SW,230,5.0,10.0,72,0.00,,---,0.00,156.00,VWS V14.01,2017-08-22 13:45:00,
2017-08-22 09:46:00,82.5,72.2,29.92,SW,216,7.0,10.0,71,0.00,,---,0.00,155.00,VWS V14.01,2017-08-22 13:46:00,
2017-08-22 09:47:00,81.9,72.4,29.91,SW,230,4.0,7.0,73,0.00,,---,0.00,160.00,VWS V14.01,2017-08-22 13:47:00,
2017-08-22 09:48:00,81.9,72.4,29.91,SW,229,6.0,7.0,73,0.00,,---,0.00,160.00,VWS V14.01,2017-08-22 13:48:00,
2017-08-22 09:49:00,81.9,72.4,29.91,SW,227,7.0,9.0,73,0.00,,---,0.00,209.00,VWS V14.01,2017-08-22 13:49:00,
2017-08-22 09:50:00,81.9,72.4,29.91,SW,227,4.0,6.0,73,0.00,,---,0.00,209.00,VWS V14.01,2017-08-22 13:50:00,
2017-08-22 09:51:00,82.2,72.3,29.91,WSW,240,6.0,6.0,72,0.00,,---,0.00,111.00,VWS V14.01,2017-08-22 13:51:00,
2017-08-22 09:52:00,82.0,72.5,29.91,SW,221,8.0,8.0,73,0.00,,---,0.00,512.00,VWS V14.01,2017-08-22 13:52:00,
2017-08-22 09:53:00,82.0,72.5,29.91,SW,223,11.0,11.0,73,0.00,,---,0.00,429.00,VWS V14.01,2017-08-22 13:53:00,
2017-08-22 09:54:00,82.1,72.6,29.91,SW,226,5.0,10.0,73,0.00,,---,0.00,330.00,VWS V14.01,2017-08-22 13:54:00,
2017-08-22 09:55:00,82.3,72.8,29.91,SW,225,5.0,7.0,73,0.00,,---,0.00,330.00,VWS V14.01,2017-08-22 13:55:00,
2017-08-22 09:56:00,81.9,72.0,29.91,SW,229,4.0,7.0,72,0.00,,---,0.00,160.00,VWS V14.01,2017-08-22 13:56:00,
2017-08-22 09:57:00,82.5,73.0,29.91,SW,224,6.0,10.0,73,0.00,,---,0.00,330.00,VWS V14.01,2017-08-22 13:57:00,
2017-08-22 09:58:00,82.7,73.2,29.91,SW,217,7.0,9.0,73,0.00,,---,0.00,561.00,VWS V14.01,2017-08-22 13:58:00,
2017-08-22 09:59:00,82.8,73.3,29.91,SW,218,7.0,9.0,73,0.00,,---,0.00,561.00,VWS V14.01,2017-08-22 13:59:00,
2017-08-22 10:00:00,83.0,73.5,29.91,SW,220,4.0,7.0,73,0.00,,---,0.00,561.00,VWS V14.01,2017-08-22 14:00:00,
2017-08-22 10:01:00,81.9,72.4,29.91,SW,221,7.0,7.0,73,0.00,,---,0.00,512.00,VWS V14.01,2017-08-22 14:01:00,
2017-08-22 10:02:00,83.2,73.2,29.91,SW,222,4.0,11.0,72,0.00,,---,0.00,243.00,VWS V14.01,2017-08-22 14:02:00,
2017-08-22 10:03:00,83.4,73.4,29.91,SW,223,5.0,7.0,72,0.00,,---,0.00,243.00,VWS V14.01,2017-08-22 14:03:00,
2017-08-22 10:04:00,83.5,73.5,29.91,WSW,246,7.0,10.0,72,0.00,,---,0.00,564.00,VWS V14.01,2017-08-22 14:04:00,
2017-08-22 10:05:00,83.6,73.6,29.91,SW,225,8.0,12.0,72,0.00,,---,0.00,564.00,VWS V14.01,2017-08-22 14:05:00,
2017-08-22 10:06:00,82.5,73.0,29.91,SW,224,5.0,10.0,73,0.00,,---,0.00,330.00,VWS V14.01,2017-08-22 14:06:00,
2017-08-22 10:07:00,83.8,73.8,29.91,SW,225,9.0,15.0,72,0.00,,---,0.00,548.00,VWS V14.01,2017-08-22 14:07:00,
2017-08-22 10:08:00,83.9,73.5,29.91,WSW,238,8.0,16.0,71,0.00,,---,0.00,591.00,VWS V14.01,2017-08-22 14:08:00,
2017-08-22 10:09:00,84.0,73.6,29.91,SW,222,13.0,13.0,71,0.00,,---,0.00,645.00,VWS V14.01,2017-08-22 14:09:00,
2017-08-22 10:10:00,84.1,73.7,29.91,SW,222,11.0,18.0,71,0.00,,---,0.00,631.00,VWS V14.01,2017-08-22 14:10:00,
2017-08-22 10:11:00,83.2,73.2,29.91,SW,221,7.0,11.0,72,0.00,,---,0.00,446.00,VWS V14.01,2017-08-22 14:11:00,
2017-08-22 10:12:00,84.3,73.9,29.91,WSW,254,5.0,9.0,71,0.00,,---,0.00,622.00,VWS V14.01,2017-08-22 14:12:00,
2017-08-22 10:13:00,84.4,74.0,29.91,WSW,247,7.0,7.0,71,0.00,,---,0.00,434.00,VWS V14.01,2017-08-22 14:13:00,
2017-08-22 10:14:00,84.5,74.1,29.91,SW,217,10.0,16.0,71,0.00,,---,0.00,396.00,VWS V14.01,2017-08-22 14:14:00,
2017-08-22 10:15:00,84.5,74.1,29.91,SW,223,11.0,14.0,71,0.00,,---,0.00,487.00,VWS V14.01,2017-08-22 14:15:00,
2017-08-22 10:16:00,83.7,73.7,29.91,SW,224,9.0,15.0,72,0.00,,---,0.00,257.00,VWS V14.01,2017-08-22 14:16:00,
2017-08-22 10:17:00,84.6,73.7,29.91,WSW,238,13.0,13.0,70,0.00,,---,0.00,670.00,VWS V14.01,2017-08-22 14:17:00,
2017-08-22 10:18:00,84.6,73.7,29.91,WSW,251,12.0,12.0,70,0.00,,---,0.00,663.00,VWS V14.01,2017-08-22 14:18:00,
2017-08-22 10:19:00,84.7,73.8,29.91,SW,223,5.0,9.0,70,0.00,,---,0.00,684.00,VWS V14.01,2017-08-22 14:19:00,
2017-08-22 10:20:00,84.8,73.9,29.91,WSW,252,9.0,13.0,70,0.00,,---,0.00,684.00,VWS V14.01,2017-08-22 14:20:00,
2017-08-22 10:21:00,84.3,73.9,29.91,WSW,255,9.0,9.0,71,0.00,,---,0.00,622.00,VWS V14.01,2017-08-22 14:21:00,
2017-08-22 10:22:00,84.8,73.9,29.91,SW,232,5.0,7.0,70,0.00,,---,0.00,385.00,VWS V14.01,2017-08-22 14:22:00,
2017-08-22 10:23:00,84.8,73.9,29.91,WSW,242,4.0,12.0,70,0.00,,---,0.00,380.00,VWS V14.01,2017-08-22 14:23:00,
2017-08-22 10:24:00,84.9,74.0,29.91,WSW,241,5.0,7.0,70,0.00,,---,0.00,330.00,VWS V14.01,2017-08-22 14:24:00,
2017-08-22 10:25:00,84.9,74.0,29.91,WSW,239,4.0,10.0,70,0.00,,---,0.00,394.00,VWS V14.01,2017-08-22 14:25:00,
2017-08-22 10:26:00,84.6,73.7,29.91,WSW,254,6.0,10.0,70,0.00,,---,0.00,670.00,VWS V14.01,2017-08-22 14:26:00,
2017-08-22 10:27:00,84.9,74.0,29.91,SW,221,4.0,10.0,70,0.00,,---,0.00,612.00,VWS V14.01,2017-08-22 14:27:00,
2017-08-22 10:28:00,84.9,74.0,29.91,SSW,213,9.0,12.0,70,0.00,,---,0.00,661.00,VWS V14.01,2017-08-22 14:28:00,
2017-08-22 10:29:00,85.0,74.1,29.91,SW,226,5.0,6.0,70,0.00,,---,0.00,661.00,VWS V14.01,2017-08-22 14:29:00,
2017-08-22 10:30:00,85.0,74.1,29.91,SW,224,6.0,9.0,70,0.00,,---,0.00,274.00,VWS V14.01,2017-08-22 14:30:00,
2017-08-22 10:31:00,84.8,73.9,29.91,SW,231,5.0,7.0,70,0.00,,---,0.00,385.00,VWS V14.01,2017-08-22 14:31:00,
2017-08-22 10:32:00,85.1,74.2,29.91,WSW,253,6.0,11.0,70,0.00,,---,0.00,633.00,VWS V14.01,2017-08-22 14:32:00,
2017-08-22 10:33:00,85.2,74.3,29.91,SW,218,14.0,14.0,70,0.00,,---,0.00,633.00,VWS V14.01,2017-08-22 14:33:00,
2017-08-22 10:34:00,85.2,73.9,29.91,WSW,242,7.0,7.0,69,0.00,,---,0.00,803.00,VWS V14.01,2017-08-22 14:34:00,
2017-08-22 10:35:00,85.3,74.0,29.91,SW,233,11.0,11.0,69,0.00,,---,0.00,728.00,VWS V14.01,2017-08-22 14:35:00,
2017-08-22 10:36:00,84.9,74.0,29.91,SW,221,6.0,10.0,70,0.00,,---,0.00,612.00,VWS V14.01,2017-08-22 14:36:00,
2017-08-22 10:37:00,85.6,74.3,29.91,SW,233,6.0,6.0,69,0.00,,---,0.00,679.00,VWS V14.01,2017-08-22 14:37:00,
2017-08-22 10:38:00,85.6,74.3,29.91,SW,229,11.0,11.0,69,0.00,,---,0.00,589.00,VWS V14.01,2017-08-22 14:38:00,
2017-08-22 10:39:00,85.8,74.0,29.91,SW,231,10.0,10.0,68,0.00,,---,0.00,613.00,VWS V14.01,2017-08-22 14:39:00,
2017-08-22 10:40:00,85.9,74.1,29.91,SW,231,11.0,13.0,68,0.00,,---,0.00,613.00,VWS V14.01,2017-08-22 14:40:00,
2017-08-22 10:41:00,85.1,74.2,29.91,WSW,248,7.0,11.0,70,0.00,,---,0.00,633.00,VWS V14.01,2017-08-22 14:41:00,
2017-08-22 10:42:00,85.9,74.1,29.91,West,260,13.0,13.0,68,0.00,,---,0.00,708.00,VWS V14.01,2017-08-22 14:42:00,
2017-08-22 10:43:00,85.9,74.1,29.91,SW,217,6.0,13.0,68,0.00,,---,0.00,336.00,VWS V14.01,2017-08-22 14:43:00,
2017-08-22 10:44:00,85.9,74.1,29.91,SW,230,12.0,12.0,68,0.00,,---,0.00,336.00,VWS V14.01,2017-08-22 14:44:00,
2017-08-22 10:45:00,85.9,74.1,29.91,WSW,253,5.0,12.0,68,0.00,,---,0.00,336.00,VWS V14.01,2017-08-22 14:45:00,
2017-08-22 10:46:00,85.5,74.2,29.91,SW,234,4.0,5.0,69,0.00,,---,0.00,679.00,VWS V14.01,2017-08-22 14:46:00,
2017-08-22 10:47:00,85.9,73.7,29.91,SW,227,10.0,11.0,67,0.00,,---,0.00,714.00,VWS V14.01,2017-08-22 14:47:00,
2017-08-22 10:48:00,86.0,73.8,29.91,WSW,251,7.0,13.0,67,0.00,,---,0.00,737.00,VWS V14.01,2017-08-22 14:48:00,
2017-08-22 10:49:00,86.0,74.2,29.91,WSW,243,6.0,11.0,68,0.00,,---,0.00,686.00,VWS V14.01,2017-08-22 14:49:00,
2017-08-22 10:50:00,86.1,74.3,29.91,WSW,237,9.0,9.0,68,0.00,,---,0.00,686.00,VWS V14.01,2017-08-22 14:50:00,
2017-08-22 10:51:00,85.9,74.1,29.91,West,267,13.0,13.0,68,0.00,,---,0.00,708.00,VWS V14.01,2017-08-22 14:51:00,
2017-08-22 10:52:00,86.3,74.1,29.91,WSW,255,9.0,9.0,67,0.00,,---,0.00,844.00,VWS V14.01,2017-08-22 14:52:00,
2017-08-22 10:53:00,86.4,74.2,29.91,SW,235,11.0,14.0,67,0.00,,---,0.00,918.00,VWS V14.01,2017-08-22 14:53:00,
2017-08-22 10:54:00,86.5,74.2,29.91,West,264,9.0,9.0,67,0.00,,---,0.00,475.00,VWS V14.01,2017-08-22 14:54:00,
2017-08-22 10:55:00,86.6,74.3,29.91,WSW,242,9.0,11.0,67,0.00,,---,0.00,475.00,VWS V14.01,2017-08-22 14:55:00,
2017-08-22 10:56:00,86.7,74.4,29.91,West,281,10.0,18.0,67,0.00,,---,0.00,914.00,VWS V14.01,2017-08-22 14:56:00,
2017-08-22 10:57:00,85.9,73.7,29.91,SW,229,9.0,11.0,67,0.00,,---,0.00,814.00,VWS V14.01,2017-08-22 14:57:00,
2017-08-22 10:58:00,86.7,73.5,29.91,SW,219,12.0,12.0,65,0.00,,---,0.00,519.00,VWS V14.01,2017-08-22 14:58:00,
2017-08-22 10:59:00,86.8,73.6,29.91,West,261,14.0,17.0,65,0.00,,---,0.00,788.00,VWS V14.01,2017-08-22 14:59:00,
2017-08-22 11:00:00,86.8,73.6,29.91,SW,233,11.0,13.0,65,0.00,,---,0.00,821.00,VWS V14.01,2017-08-22 15:00:00,
2017-08-22 11:01:00,86.8,73.6,29.91,WSW,240,14.0,16.0,65,0.00,,---,0.00,884.00,VWS V14.01,2017-08-22 15:01:00,
2017-08-22 11:02:00,86.3,74.1,29.91,WSW,254,9.0,9.0,67,0.00,,---,0.00,844.00,VWS V14.01,2017-08-22 15:02:00,
2017-08-22 11:03:00,86.7,74.0,29.91,WSW,250,5.0,12.0,66,0.00,,---,0.00,900.00,VWS V14.01,2017-08-22 15:03:00,
2017-08-22 11:04:00,86.7,73.5,29.91,West,267,16.0,18.0,65,0.00,,---,0.00,900.00,VWS V14.01,2017-08-22 15:04:00,
2017-08-22 11:05:00,86.6,73.4,29.91,WSW,239,9.0,10.0,65,0.00,,---,0.00,900.00,VWS V14.01,2017-08-22 15:05:00,
2017-08-22 11:06:00,86.5,73.3,29.91,WSW,242,11.0,11.0,65,0.00,,---,0.00,900.00,VWS V14.01,2017-08-22 15:06:00,
2017-08-22 11:07:00,86.7,73.5,29.91,SW,225,12.0,14.0,65,0.00,,---,0.00,519.00,VWS V14.01,2017-08-22 15:07:00,
2017-08-22 11:08:00,86.6,73.9,29.91,SW,216,9.0,12.0,66,0.00,,---,0.00,580.00,VWS V14.01,2017-08-22 15:08:00,
2017-08-22 11:09:00,86.6,73.4,29.91,SW,226,9.0,14.0,65,0.00,,---,0.00,628.00,VWS V14.01,2017-08-22 15:09:00,
2017-08-22 11:10:00,86.6,73.4,29.91,WSW,237,15.0,15.0,65,0.00,,---,0.00,628.00,VWS V14.01,2017-08-22 15:10:00,
2017-08-22 11:11:00,86.6,73.4,29.91,WSW,243,11.0,12.0,65,0.00,,---,0.00,352.00,VWS V14.01,2017-08-22 15:11:00,
2017-08-22 11:12:00,86.7,74.0,29.91,West,271,10.0,14.0,66,0.00,,---,0.00,900.00,VWS V14.01,2017-08-22 15:12:00,
2017-08-22 11:13:00,86.5,73.3,29.91,WSW,247,7.0,14.0,65,0.00,,---,0.00,346.00,VWS V14.01,2017-08-22 15:13:00,
2017-08-22 11:14:00,86.4,73.7,29.91,WSW,241,6.0,9.0,66,0.00,,---,0.00,346.00,VWS V14.01,2017-08-22 15:14:00,
2017-08-22 11:15:00,86.3,73.6,29.91,WSW,258,12.0,16.0,66,0.00,,---,0.00,272.00,VWS V14.01,2017-08-22 15:15:00,
2017-08-22 11:16:00,86.1,73.4,29.91,WSW,244,7.0,14.0,66,0.00,,---,0.00,283.00,VWS V14.01,2017-08-22 15:16:00,
2017-08-22 11:17:00,86.6,73.9,29.91,SSW,201,5.0,13.0,66,0.00,,---,0.00,900.00,VWS V14.01,2017-08-22 15:17:00,
2017-08-22 11:18:00,85.9,73.2,29.91,SSW,210,8.0,14.0,66,0.00,,---,0.00,295.00,VWS V14.01,2017-08-22 15:18:00,
2017-08-22 11:19:00,85.8,73.1,29.91,SW,225,5.0,10.0,66,0.00,,---,0.00,320.00,VWS V14.01,2017-08-22 15:19:00,
2017-08-22 11:20:00,85.7,73.0,29.91,SW,226,3.0,6.0,66,0.00,,---,0.00,329.00,VWS V14.01,2017-08-22 15:20:00,
2017-08-22 11:21:00,85.7,73.0,29.91,WSW,248,11.0,12.0,66,0.00,,---,0.00,313.00,VWS V14.01,2017-08-22 15:21:00,
2017-08-22 11:22:00,86.6,73.4,29.91,WSW,238,11.0,13.0,65,0.00,,---,0.00,408.00,VWS V14.01,2017-08-22 15:22:00,
2017-08-22 11:23:00,85.6,72.9,29.91,WSW,240,3.0,9.0,66,0.00,,---,0.00,380.00,VWS V14.01,2017-08-22 15:23:00,
2017-08-22 11:24:00,85.6,73.4,29.91,WSW,245,4.0,10.0,67,0.00,,---,0.00,380.00,VWS V14.01,2017-08-22 15:24:00,
2017-08-22 11:25:00,85.6,73.4,29.91,SSW,198,15.0,15.0,67,0.00,,---,0.00,441.00,VWS V14.01,2017-08-22 15:25:00,
2017-08-22 11:26:00,85.7,73.0,29.91,WSW,257,6.0,17.0,66,0.00,,---,0.00,441.00,VWS V14.01,2017-08-22 15:26:00,
2017-08-22 11:27:00,85.9,73.2,29.91,SW,227,6.0,9.0,66,0.00,,---,0.00,292.00,VWS V14.01,2017-08-22 15:27:00,
2017-08-22 11:28:00,85.6,72.9,29.91,WSW,240,10.0,12.0,66,0.00,,---,0.00,396.00,VWS V14.01,2017-08-22 15:28:00,
2017-08-22 11:29:00,85.6,73.4,29.91,WSW,242,5.0,9.0,67,0.00,,---,0.00,288.00,VWS V14.01,2017-08-22 15:29:00,
2017-08-22 11:30:00,85.5,73.3,29.91,WSW,245,6.0,14.0,67,0.00,,---,0.00,308.00,VWS V14.01,2017-08-22 15:30:00,
2017-08-22 11:31:00,85.7,73.0,29.91,WSW,239,9.0,10.0,66,0.00,,---,0.00,341.00,VWS V14.01,2017-08-22 15:31:00,
2017-08-22 11:32:00,85.5,73.3,29.91,SSW,211,6.0,14.0,67,0.00,,---,0.00,327.00,VWS V14.01,2017-08-22 15:32:00,
2017-08-22 11:33:00,85.5,73.3,29.91,SW,224,6.0,12.0,67,0.00,,---,0.00,294.00,VWS V14.01,2017-08-22 15:33:00,
2017-08-22 11:34:00,85.5,73.3,29.91,SW,225,5.0,7.0,67,0.00,,---,0.00,262.00,VWS V14.01,2017-08-22 15:34:00,
2017-08-22 11:35:00,85.5,73.3,29.91,WSW,253,9.0,17.0,67,0.00,,---,0.00,234.00,VWS V14.01,2017-08-22 15:35:00,
2017-08-22 11:36:00,85.6,72.9,29.91,WSW,244,7.0,13.0,66,0.00,,---,0.00,297.00,VWS V14.01,2017-08-22 15:36:00,
2017-08-22 11:37:00,85.4,73.2,29.91,SW,224,6.0,12.0,67,0.00,,---,0.00,172.00,VWS V14.01,2017-08-22 15:37:00,
2017-08-22 11:38:00,85.4,73.2,29.91,West,264,8.0,9.0,67,0.00,,---,0.00,155.00,VWS V14.01,2017-08-22 15:38:00,
2017-08-22 11:39:00,85.3,73.6,29.91,West,261,7.0,7.0,68,0.00,,---,0.00,148.00,VWS V14.01,2017-08-22 15:39:00,
2017-08-22 11:40:00,85.2,73.4,29.91,West,261,10.0,10.0,68,0.00,,---,0.00,174.00,VWS V14.01,2017-08-22 15:40:00,
2017-08-22 11:41:00,85.5,73.3,29.91,SSW,206,10.0,14.0,67,0.00,,---,0.00,327.00,VWS V14.01,2017-08-22 15:41:00,
2017-08-22 11:42:00,85.1,73.4,29.91,SW,234,12.0,12.0,68,0.00,,---,0.00,220.00,VWS V14.01,2017-08-22 15:42:00,
2017-08-22 11:43:00,85.0,73.3,29.91,WSW,251,7.0,13.0,68,0.00,,---,0.00,214.00,VWS V14.01,2017-08-22 15:43:00,
2017-08-22 11:44:00,85.0,73.3,29.91,WSW,251,5.0,6.0,68,0.00,,---,0.00,281.00,VWS V14.01,2017-08-22 15:44:00,
2017-08-22 11:45:00,84.9,73.2,29.91,WSW,254,5.0,9.0,68,0.00,,---,0.00,292.00,VWS V14.01,2017-08-22 15:45:00,
2017-08-22 11:46:00,85.4,73.2,29.91,SW,225,12.0,12.0,67,0.00,,---,0.00,172.00,VWS V14.01,2017-08-22 15:46:00,
2017-08-22 11:47:00,84.9,73.2,29.91,West,264,4.0,11.0,68,0.00,,---,0.00,292.00,VWS V14.01,2017-08-22 15:47:00,
2017-08-22 11:48:00,85.0,73.3,29.91,West,261,5.0,7.0,68,0.00,,---,0.00,744.00,VWS V14.01,2017-08-22 15:48:00,
2017-08-22 11:49:00,85.0,73.7,29.91,SW,227,11.0,11.0,69,0.00,,---,0.00,744.00,VWS V14.01,2017-08-22 15:49:00,
2017-08-22 11:50:00,85.1,73.4,29.91,West,274,9.0,14.0,68,0.00,,---,0.00,446.00,VWS V14.01,2017-08-22 15:50:00,
2017-08-22 11:51:00,85.1,73.4,29.91,SW,234,11.0,11.0,68,0.00,,---,0.00,220.00,VWS V14.01,2017-08-22 15:51:00,
2017-08-22 11:52:00,85.2,73.4,29.91,SW,217,14.0,14.0,68,0.00,,---,0.00,373.00,VWS V14.01,2017-08-22 15:52:00,
2017-08-22 11:53:00,85.2,73.0,29.91,West,261,9.0,12.0,67,0.00,,---,0.00,376.00,VWS V14.01,2017-08-22 15:53:00,
2017-08-22 11:54:00,85.3,73.1,29.91,WSW,253,8.0,12.0,67,0.00,,---,0.00,381.00,VWS V14.01,2017-08-22 15:54:00,
2017-08-22 11:55:00,85.3,73.1,29.91,West,259,9.0,10.0,67,0.00,,---,0.00,383.00,VWS V14.01,2017-08-22 15:55:00,
2017-08-22 11:56:00,84.9,73.2,29.91,West,263,7.0,11.0,68,0.00,,---,0.00,292.00,VWS V14.01,2017-08-22 15:56:00,
2017-08-22 11:57:00,85.3,72.7,29.91,West,265,9.0,10.0,66,0.00,,---,0.00,343.00,VWS V14.01,2017-08-22 15:57:00,
2017-08-22 11:58:00,85.3,72.7,29.91,West,265,4.0,11.0,66,0.00,,---,0.00,323.00,VWS V14.01,2017-08-22 15:58:00,
2017-08-22 11:59:00,85.2,72.6,29.91,West,269,9.0,9.0,66,0.00,,---,0.00,330.00,VWS V14.01,2017-08-22 15:59:00,
2017-08-22 12:00:00,85.3,72.7,29.90,WSW,252,6.0,13.0,66,0.00,,---,0.00,343.00,VWS V14.01,2017-08-22 16:00:00,
2017-08-22 12:01:00,85.2,73.4,29.91,SW,222,8.0,11.0,68,0.00,,---,0.00,529.00,VWS V14.01,2017-08-22 16:01:00,
2017-08-22 12:02:00,85.2,72.6,29.90,WSW,244,5.0,7.0,66,0.00,,---,0.00,452.00,VWS V14.01,2017-08-22 16:02:00,
2017-08-22 12:03:00,85.3,73.1,29.90,WSW,244,6.0,6.0,67,0.00,,---,0.00,404.00,VWS V14.01,2017-08-22 16:03:00,
2017-08-22 12:04:00,85.3,73.1,29.90,WSW,244,5.0,6.0,67,0.00,,---,0.00,350.00,VWS V14.01,2017-08-22 16:04:00,
2017-08-22 12:05:00,85.4,73.2,29.90,SW,235,6.0,10.0,67,0.00,,---,0.00,330.00,VWS V14.01,2017-08-22 16:05:00,
2017-08-22 12:06:00,85.3,72.7,29.91,WSW,252,8.0,8.0,66,0.00,,---,0.00,343.00,VWS V14.01,2017-08-22 16:06:00,
2017-08-22 12:07:00,85.5,72.8,29.90,WSW,243,5.0,11.0,66,0.00,,---,0.00,311.00,VWS V14.01,2017-08-22 16:07:00,
2017-08-22 12:08:00,85.5,72.8,29.90,SW,232,9.0,12.0,66,0.00,,---,0.00,313.00,VWS V14.01,2017-08-22 16:08:00,
2017-08-22 12:09:00,85.4,72.8,29.90,WSW,247,9.0,9.0,66,0.00,,---,0.00,316.00,VWS V14.01,2017-08-22 16:09:00,
2017-08-22 12:10:00,85.4,72.3,29.90,West,275,9.0,13.0,65,0.00,,---,0.00,276.00,VWS V14.01,2017-08-22 16:10:00,
2017-08-22 12:11:00,85.2,72.6,29.90,WSW,244,7.0,7.0,66,0.00,,---,0.00,452.00,VWS V14.01,2017-08-22 16:11:00,
2017-08-22 12:12:00,85.4,72.8,29.90,West,274,4.0,6.0,66,0.00,,---,0.00,246.00,VWS V14.01,2017-08-22 16:12:00,
2017-08-22 12:13:00,85.4,72.8,29.90,West,269,7.0,9.0,66,0.00,,---,0.00,274.00,VWS V14.01,2017-08-22 16:13:00,
2017-08-22 12:14:00,85.4,72.8,29.90,West,269,4.0,6.0,66,0.00,,---,0.00,325.00,VWS V14.01,2017-08-22 16:14:00,
2017-08-22 12:15:00,85.3,72.7,29.90,WSW,242,10.0,12.0,66,0.00,,---,0.00,413.00,VWS V14.01,2017-08-22 16:15:00,
2017-08-22 12:16:00,85.5,72.8,29.90,WSW,243,5.0,11.0,66,0.00,,---,0.00,311.00,VWS V14.01,2017-08-22 16:16:00,
2017-08-22 12:17:00,85.4,72.3,29.90,WSW,248,3.0,8.0,65,0.00,,---,0.00,480.00,VWS V14.01,2017-08-22 16:17:00,
2017-08-22 12:18:00,85.4,72.8,29.90,WNW,285,10.0,10.0,66,0.00,,---,0.00,397.00,VWS V14.01,2017-08-22 16:18:00,
2017-08-22 12:19:00,85.4,72.3,29.89,West,269,5.0,12.0,65,0.00,,---,0.00,315.00,VWS V14.01,2017-08-22 16:19:00,
2017-08-22 12:20:00,85.4,72.3,29.89,West,267,11.0,12.0,65,0.00,,---,0.00,257.00,VWS V14.01,2017-08-22 16:20:00,
2017-08-22 12:21:00,85.4,72.8,29.90,West,274,5.0,6.0,66,0.00,,---,0.00,246.00,VWS V14.01,2017-08-22 16:21:00,
2017-08-22 12:22:00,85.4,72.3,29.89,WSW,244,9.0,13.0,65,0.00,,---,0.00,267.00,VWS V14.01,2017-08-22 16:22:00,
2017-08-22 12:23:00,85.3,72.2,29.89,West,270,10.0,12.0,65,0.00,,---,0.00,267.00,VWS V14.01,2017-08-22 16:23:00,
2017-08-22 12:24:00,85.3,72.2,29.89,West,260,4.0,10.0,65,0.00,,---,0.00,267.00,VWS V14.01,2017-08-22 16:24:00,
2017-08-22 12:25:00,85.4,72.3,29.89,West,273,5.0,7.0,65,0.00,,---,0.00,854.00,VWS V14.01,2017-08-22 16:25:00,
2017-08-22 12:26:00,85.3,72.2,29.90,WSW,248,5.0,8.0,65,0.00,,---,0.00,480.00,VWS V14.01,2017-08-22 16:26:00,
2017-08-22 12:27:00,85.6,72.0,29.89,WSW,246,12.0,14.0,64,0.00,,---,0.00,816.00,VWS V14.01,2017-08-22 16:27:00,
2017-08-22 12:28:00,85.7,72.1,29.89,SW,229,4.0,9.0,64,0.00,,---,0.00,816.00,VWS V14.01,2017-08-22 16:28:00,
2017-08-22 12:29:00,85.9,71.8,29.89,SW,218,10.0,12.0,63,0.00,,---,0.00,420.00,VWS V14.01,2017-08-22 16:29:00,
2017-08-22 12:30:00,86.1,71.6,29.89,SW,217,5.0,11.0,62,0.00,,---,0.00,431.00,VWS V14.01,2017-08-22 16:30:00,
2017-08-22 12:31:00,86.2,71.7,29.89,WSW,239,11.0,14.0,62,0.00,,---,0.00,431.00,VWS V14.01,2017-08-22 16:31:00,
2017-08-22 12:32:00,85.3,72.2,29.89,West,263,7.0,13.0,65,0.00,,---,0.00,267.00,VWS V14.01,2017-08-22 16:32:00,
2017-08-22 12:33:00,86.3,71.8,29.90,WSW,256,11.0,17.0,62,0.00,,---,0.00,72.00,VWS V14.01,2017-08-22 16:33:00,
2017-08-22 12:34:00,86.2,71.7,29.90,WSW,256,4.0,20.0,62,0.00,,---,0.00,79.00,VWS V14.01,2017-08-22 16:34:00,
2017-08-22 12:35:00,85.9,70.9,29.90,NE,52,10.0,15.0,61,0.00,,---,0.00,125.00,VWS V14.01,2017-08-22 16:35:00,
2017-08-22 12:36:00,85.3,70.3,29.90,NNW,330,6.0,10.0,61,0.00,,---,0.00,179.00,VWS V14.01,2017-08-22 16:36:00,
2017-08-22 12:37:00,85.7,72.1,29.89,SW,219,9.0,14.0,64,0.00,,---,0.00,816.00,VWS V14.01,2017-08-22 16:37:00,
2017-08-22 12:38:00,84.0,70.1,29.90,WSW,250,9.0,12.0,63,0.00,,---,0.00,171.00,VWS V14.01,2017-08-22 16:38:00,
2017-08-22 12:39:00,83.4,69.5,29.90,West,269,4.0,9.0,63,0.00,,---,0.00,229.00,VWS V14.01,2017-08-22 16:39:00,
2017-08-22 12:40:00,83.0,69.6,29.89,WSW,257,3.0,9.0,64,0.00,,---,0.00,229.00,VWS V14.01,2017-08-22 16:40:00,
2017-08-22 12:41:00,82.6,69.2,29.90,North,5,6.0,7.0,64,0.00,,---,0.00,281.00,VWS V14.01,2017-08-22 16:41:00,
2017-08-22 12:42:00,86.3,71.8,29.90,WSW,255,13.0,13.0,62,0.00,,---,0.00,88.00,VWS V14.01,2017-08-22 16:42:00,
2017-08-22 12:43:00,81.9,69.9,29.90,WSW,255,8.0,10.0,67,0.00,,---,0.00,227.00,VWS V14.01,2017-08-22 16:43:00,
2017-08-22 12:44:00,81.6,70.0,29.89,WSW,240,4.0,14.0,68,0.00,,---,0.00,199.00,VWS V14.01,2017-08-22 16:44:00,
2017-08-22 12:45:00,81.2,70.1,29.89,West,265,12.0,12.0,69,0.00,,---,0.00,162.00,VWS V14.01,2017-08-22 16:45:00,
2017-08-22 12:46:00,80.9,69.8,29.89,West,277,4.0,10.0,69,0.00,,---,0.00,149.00,VWS V14.01,2017-08-22 16:46:00,
2017-08-22 12:47:00,84.3,69.9,29.90,WNW,287,6.0,7.0,62,0.00,,---,0.00,171.00,VWS V14.01,2017-08-22 16:47:00,
2017-08-22 12:48:00,80.4,70.6,29.90,WNW,288,5.0,6.0,72,0.00,,---,0.00,118.00,VWS V14.01,2017-08-22 16:48:00,
2017-08-22 12:49:00,80.2,70.4,29.90,WNW,282,7.0,7.0,72,0.00,,---,0.00,100.00,VWS V14.01,2017-08-22 16:49:00,
2017-08-22 12:50:00,80.0,70.2,29.90,WNW,282,4.0,7.0,72,0.00,,---,0.00,79.00,VWS V14.01,2017-08-22 16:50:00,
2017-08-22 12:51:00,79.8,70.4,29.90,WNW,282,2.0,6.0,73,0.00,,---,0.00,84.00,VWS V14.01,2017-08-22 16:51:00,
2017-08-22 12:52:00,82.1,69.6,29.90,West,275,4.0,9.0,66,0.00,,---,0.00,227.00,VWS V14.01,2017-08-22 16:52:00,
2017-08-22 12:53:00,79.6,70.2,29.90,West,281,1.0,3.0,73,0.00,,---,0.00,111.00,VWS V14.01,2017-08-22 16:53:00,
2017-08-22 12:54:00,79.5,70.5,29.90,West,281,1.0,3.0,74,0.00,,---,0.00,118.00,VWS V14.01,2017-08-22 16:54:00,
2017-08-22 12:55:00,79.5,70.9,29.90,WNW,282,0.0,0.0,75,0.00,,---,0.00,121.00,VWS V14.01,2017-08-22 16:55:00,
2017-08-22 12:56:00,79.4,70.8,29.90,WNW,282,2.0,2.0,75,0.00,,---,0.00,125.00,VWS V14.01,2017-08-22 16:56:00,
2017-08-22 12:57:00,80.6,70.3,29.90,WNW,293,2.0,3.0,71,0.00,,---,0.00,135.00,VWS V14.01,2017-08-22 16:57:00,
2017-08-22 12:58:00,79.4,70.8,29.91,West,281,3.0,5.0,75,0.00,,---,0.00,111.00,VWS V14.01,2017-08-22 16:58:00,
2017-08-22 12:59:00,79.4,70.8,29.91,West,281,4.0,5.0,75,0.00,,---,0.00,93.00,VWS V14.01,2017-08-22 16:59:00,
2017-08-22 13:00:00,79.3,71.1,29.91,West,281,4.0,7.0,76,0.00,,---,0.00,77.00,VWS V14.01,2017-08-22 17:00:00,
2017-08-22 13:01:00,79.3,71.1,29.91,West,281,3.0,6.0,76,0.00,,---,0.00,63.00,VWS V14.01,2017-08-22 17:01:00,
2017-08-22 13:02:00,79.6,70.2,29.90,West,281,2.0,3.0,73,0.00,,---,0.00,98.00,VWS V14.01,2017-08-22 17:02:00,
2017-08-22 13:03:00,79.2,71.4,29.91,West,275,6.0,7.0,77,0.00,,---,0.00,26.00,VWS V14.01,2017-08-22 17:03:00,
2017-08-22 13:04:00,79.2,71.4,29.92,WSW,251,9.0,10.0,77,0.00,,---,0.00,26.00,VWS V14.01,2017-08-22 17:04:00,
2017-08-22 13:05:00,79.1,71.3,29.91,SW,222,6.0,10.0,77,0.00,,---,0.00,28.00,VWS V14.01,2017-08-22 17:05:00,
2017-08-22 13:06:00,79.1,72.0,29.92,SW,221,5.0,10.0,79,0.00,,---,0.00,33.00,VWS V14.01,2017-08-22 17:06:00,
2017-08-22 13:07:00,79.4,70.8,29.90,WNW,282,5.0,6.0,75,0.00,,---,0.00,121.00,VWS V14.01,2017-08-22 17:07:00,
2017-08-22 13:08:00,79.0,72.3,29.91,SW,217,6.0,10.0,80,0.00,,---,0.00,62.00,VWS V14.01,2017-08-22 17:08:00,
2017-08-22 13:09:00,78.9,72.2,29.91,SW,217,5.0,7.0,80,0.00,,---,0.00,72.00,VWS V14.01,2017-08-22 17:09:00,
2017-08-22 13:10:00,78.9,72.2,29.91,SW,217,3.0,6.0,80,0.00,,---,0.00,79.00,VWS V14.01,2017-08-22 17:10:00,
2017-08-22 13:11:00,78.8,72.1,29.91,SW,217,3.0,4.0,80,0.00,,---,0.00,83.00,VWS V14.01,2017-08-22 17:11:00,
2017-08-22 13:12:00,79.3,71.1,29.91,West,274,4.0,10.0,76,0.00,,---,0.00,33.00,VWS V14.01,2017-08-22 17:12:00,
2017-08-22 13:13:00,78.7,72.4,29.91,SW,217,3.0,6.0,81,0.00,,---,0.00,84.00,VWS V14.01,2017-08-22 17:13:00,
2017-08-22 13:14:00,78.6,71.9,29.91,SW,217,0.0,4.0,80,0.00,,---,0.00,84.00,VWS V14.01,2017-08-22 17:14:00,
2017-08-22 13:15:00,78.6,71.9,29.91,SW,217,3.0,3.0,80,0.00,,---,0.00,90.00,VWS V14.01,2017-08-22 17:15:00,
2017-08-22 13:16:00,78.5,71.8,29.91,SW,217,0.0,5.0,80,0.00,,---,0.00,104.00,VWS V14.01,2017-08-22 17:16:00,
2017-08-22 13:17:00,79.1,72.0,29.91,SW,221,10.0,10.0,79,0.00,,---,0.00,47.00,VWS V14.01,2017-08-22 17:17:00,
2017-08-22 13:18:00,78.3,71.6,29.91,SW,217,4.0,5.0,80,0.00,,---,0.00,137.00,VWS V14.01,2017-08-22 17:18:00,
2017-08-22 13:19:00,78.3,71.6,29.91,SW,217,3.0,6.0,80,0.00,,---,0.00,148.00,VWS V14.01,2017-08-22 17:19:00,
2017-08-22 13:20:00,78.2,71.5,29.91,SW,217,4.0,4.0,80,0.00,,---,0.00,178.00,VWS V14.01,2017-08-22 17:20:00,
2017-08-22 13:21:00,78.2,71.5,29.90,SW,217,2.0,4.0,80,0.00,,---,0.00,183.00,VWS V14.01,2017-08-22 17:21:00,
2017-08-22 13:22:00,78.8,72.5,29.91,SW,217,5.0,6.0,81,0.00,,---,0.00,84.00,VWS V14.01,2017-08-22 17:22:00,
2017-08-22 13:23:00,78.2,71.5,29.90,SW,217,3.0,3.0,80,0.00,,---,0.00,149.00,VWS V14.01,2017-08-22 17:23:00,
2017-08-22 13:24:00,78.2,71.5,29.90,SW,217,3.0,6.0,80,0.00,,---,0.00,148.00,VWS V14.01,2017-08-22 17:24:00,
2017-08-22 13:25:00,78.1,71.4,29.90,SW,217,3.0,3.0,80,0.00,,---,0.00,167.00,VWS V14.01,2017-08-22 17:25:00,
2017-08-22 13:26:00,78.2,71.5,29.90,SW,217,3.0,5.0,80,0.00,,---,0.00,211.00,VWS V14.01,2017-08-22 17:26:00,
2017-08-22 13:27:00,78.4,71.7,29.91,SW,217,3.0,5.0,80,0.00,,---,0.00,137.00,VWS V14.01,2017-08-22 17:27:00,
2017-08-22 13:28:00,78.2,71.5,29.90,SW,217,3.0,6.0,80,0.00,,---,0.00,299.00,VWS V14.01,2017-08-22 17:28:00,
2017-08-22 13:29:00,78.2,71.5,29.90,SW,217,2.0,3.0,80,0.00,,---,0.00,336.00,VWS V14.01,2017-08-22 17:29:00,
2017-08-22 13:30:00,78.2,71.5,29.90,SW,217,0.0,0.0,80,0.00,,---,0.00,336.00,VWS V14.01,2017-08-22 17:30:00,
2017-08-22 13:31:00,78.3,71.6,29.90,SW,217,0.0,0.0,80,0.00,,---,0.00,339.00,VWS V14.01,2017-08-22 17:31:00,
2017-08-22 13:32:00,78.2,71.5,29.90,SW,217,3.0,4.0,80,0.00,,---,0.00,169.00,VWS V14.01,2017-08-22 17:32:00,
2017-08-22 13:33:00,78.5,71.8,29.90,SW,217,0.0,3.0,80,0.00,,---,0.00,316.00,VWS V14.01,2017-08-22 17:33:00,
2017-08-22 13:34:00,78.5,71.8,29.90,SW,217,0.0,0.0,80,0.00,,---,0.00,294.00,VWS V14.01,2017-08-22 17:34:00,
2017-08-22 13:35:00,78.7,72.0,29.90,SW,217,0.0,2.0,80,0.00,,---,0.00,253.00,VWS V14.01,2017-08-22 17:35:00,
2017-08-22 13:36:00,78.7,72.0,29.90,SW,217,0.0,0.0,80,0.00,,---,0.00,250.00,VWS V14.01,2017-08-22 17:36:00,
2017-08-22 13:37:00,78.2,71.5,29.90,SW,217,3.0,6.0,80,0.00,,---,0.00,244.00,VWS V14.01,2017-08-22 17:37:00,
2017-08-22 13:38:00,78.9,71.8,29.90,SW,217,2.0,5.0,79,0.00,,---,0.00,410.00,VWS V14.01,2017-08-22 17:38:00,
2017-08-22 13:39:00,79.0,71.9,29.90,SW,217,0.0,1.0,79,0.00,,---,0.00,413.00,VWS V14.01,2017-08-22 17:39:00,
2017-08-22 13:40:00,79.1,72.0,29.90,SW,218,2.0,3.0,79,0.00,,---,0.00,381.00,VWS V14.01,2017-08-22 17:40:00,
2017-08-22 13:41:00,79.3,71.8,29.90,SW,229,4.0,7.0,78,0.00,,---,0.00,367.00,VWS V14.01,2017-08-22 17:41:00,
2017-08-22 13:42:00,78.4,71.7,29.90,SW,217,3.0,5.0,80,0.00,,---,0.00,339.00,VWS V14.01,2017-08-22 17:42:00,
2017-08-22 13:43:00,79.6,72.1,29.90,WSW,240,2.0,5.0,78,0.00,,---,0.00,301.00,VWS V14.01,2017-08-22 17:43:00,
2017-08-22 13:44:00,79.7,71.9,29.90,NNW,344,3.0,12.0,77,0.00,,---,0.00,355.00,VWS V14.01,2017-08-22 17:44:00,
2017-08-22 13:45:00,79.7,71.1,29.91,NE,41,4.0,10.0,75,0.00,,---,0.00,355.00,VWS V14.01,2017-08-22 17:45:00,
2017-08-22 13:46:00,79.8,70.8,29.90,NNE,15,6.0,6.0,74,0.00,,---,0.00,355.00,VWS V14.01,2017-08-22 17:46:00,
2017-08-22 13:47:00,78.9,71.8,29.90,SW,217,1.0,3.0,79,0.00,,---,0.00,371.00,VWS V14.01,2017-08-22 17:47:00,
2017-08-22 13:48:00,80.0,70.6,29.90,NW,323,7.0,7.0,73,0.00,,---,0.00,856.00,VWS V14.01,2017-08-22 17:48:00,
2017-08-22 13:49:00,80.1,70.7,29.90,WNW,302,3.0,7.0,73,0.00,,---,0.00,856.00,VWS V14.01,2017-08-22 17:49:00,
2017-08-22 13:50:00,80.3,70.5,29.90,NW,306,4.0,5.0,72,0.00,,---,0.00,420.00,VWS V14.01,2017-08-22 17:50:00,
2017-08-22 13:51:00,80.3,70.1,29.90,WNW,285,6.0,9.0,71,0.00,,---,0.00,417.00,VWS V14.01,2017-08-22 17:51:00,
2017-08-22 13:52:00,79.6,72.1,29.90,WSW,240,2.0,7.0,78,0.00,,---,0.00,306.00,VWS V14.01,2017-08-22 17:52:00,
2017-08-22 13:53:00,80.5,70.2,29.90,West,281,3.0,4.0,71,0.00,,---,0.00,450.00,VWS V14.01,2017-08-22 17:53:00,
2017-08-22 13:54:00,80.6,69.9,29.89,North,11,3.0,9.0,70,0.00,,---,0.00,450.00,VWS V14.01,2017-08-22 17:54:00,
2017-08-22 13:55:00,80.7,70.0,29.89,NNW,338,2.0,6.0,70,0.00,,---,0.00,861.00,VWS V14.01,2017-08-22 17:55:00,
2017-08-22 13:56:00,80.8,70.1,29.89,West,271,5.0,10.0,70,0.00,,---,0.00,861.00,VWS V14.01,2017-08-22 17:56:00,
2017-08-22 13:57:00,79.9,70.5,29.90,NNE,29,3.0,7.0,73,0.00,,---,0.00,856.00,VWS V14.01,2017-08-22 17:57:00,
2017-08-22 13:58:00,81.0,69.9,29.89,West,275,6.0,7.0,69,0.00,,---,0.00,561.00,VWS V14.01,2017-08-22 17:58:00,
2017-08-22 13:59:00,81.0,69.9,29.89,West,264,3.0,5.0,69,0.00,,---,0.00,508.00,VWS V14.01,2017-08-22 17:59:00,
2017-08-22 14:00:00,81.1,70.0,29.89,West,265,3.0,5.0,69,0.00,,---,0.00,508.00,VWS V14.01,2017-08-22 18:00:00,
2017-08-22 14:01:00,81.2,70.1,29.89,NE,34,5.0,10.0,69,0.00,,---,0.00,424.00,VWS V14.01,2017-08-22 18:01:00,
2017-08-22 14:02:00,80.5,69.8,29.90,West,279,2.0,2.0,70,0.00,,---,0.00,450.00,VWS V14.01,2017-08-22 18:02:00,
2017-08-22 14:03:00,81.2,70.1,29.89,North,355,4.0,5.0,69,0.00,,---,0.00,429.00,VWS V14.01,2017-08-22 18:03:00,
2017-08-22 14:04:00,81.2,70.1,29.89,NNW,329,1.0,7.0,69,0.00,,---,0.00,454.00,VWS V14.01,2017-08-22 18:04:00,
2017-08-22 14:05:00,81.2,70.5,29.90,NNW,329,0.0,0.0,70,0.00,,---,0.00,482.00,VWS V14.01,2017-08-22 18:05:00,
2017-08-22 14:06:00,81.2,70.5,29.89,North,355,1.0,5.0,70,0.00,,---,0.00,494.00,VWS V14.01,2017-08-22 18:06:00,
2017-08-22 14:07:00,80.9,69.8,29.89,NNE,26,2.0,9.0,69,0.00,,---,0.00,538.00,VWS V14.01,2017-08-22 18:07:00,
2017-08-22 14:08:00,81.3,70.2,29.89,North,355,3.0,5.0,69,0.00,,---,0.00,383.00,VWS V14.01,2017-08-22 18:08:00,
2017-08-22 14:09:00,81.4,70.7,29.89,North,5,5.0,6.0,70,0.00,,---,0.00,381.00,VWS V14.01,2017-08-22 18:09:00,
2017-08-22 14:10:00,81.3,69.7,29.90,North,360,2.0,5.0,68,0.00,,---,0.00,392.00,VWS V14.01,2017-08-22 18:10:00,
2017-08-22 14:11:00,81.3,70.2,29.89,North,360,0.0,3.0,69,0.00,,---,0.00,445.00,VWS V14.01,2017-08-22 18:11:00,
2017-08-22 14:12:00,81.2,70.1,29.89,North,355,3.0,12.0,69,0.00,,---,0.00,420.00,VWS V14.01,2017-08-22 18:12:00,
2017-08-22 14:13:00,81.3,70.2,29.90,North,360,2.0,2.0,69,0.00,,---,0.00,445.00,VWS V14.01,2017-08-22 18:13:00,
2017-08-22 14:14:00,81.3,70.2,29.89,North,360,0.0,2.0,69,0.00,,---,0.00,517.00,VWS V14.01,2017-08-22 18:14:00,
2017-08-22 14:15:00,81.4,70.3,29.89,North,360,3.0,7.0,69,0.00,,---,0.00,531.00,VWS V14.01,2017-08-22 18:15:00,
2017-08-22 14:16:00,81.4,70.3,29.89,NNW,343,3.0,9.0,69,0.00,,---,0.00,452.00,VWS V14.01,2017-08-22 18:16:00,
2017-08-22 14:17:00,81.3,70.2,29.89,North,355,2.0,7.0,69,0.00,,---,0.00,404.00,VWS V14.01,2017-08-22 18:17:00,
2017-08-22 14:18:00,81.5,69.9,29.89,NNW,342,4.0,5.0,68,0.00,,---,0.00,366.00,VWS V14.01,2017-08-22 18:18:00,
2017-08-22 14:19:00,81.5,69.9,29.89,NNW,342,0.0,5.0,68,0.00,,---,0.00,332.00,VWS V14.01,2017-08-22 18:19:00,
2017-08-22 14:20:00,81.5,69.9,29.89,NNW,342,2.0,3.0,68,0.00,,---,0.00,332.00,VWS V14.01,2017-08-22 18:20:00,
2017-08-22 14:21:00,81.6,70.0,29.89,NNW,342,4.0,4.0,68,0.00,,---,0.00,345.00,VWS V14.01,2017-08-22 18:21:00,
2017-08-22 14:22:00,81.3,70.2,29.89,North,360,0.0,6.0,69,0.00,,---,0.00,476.00,VWS V14.01,2017-08-22 18:22:00,
2017-08-22 14:23:00,81.6,70.0,29.89,NNW,342,2.0,4.0,68,0.00,,---,0.00,348.00,VWS V14.01,2017-08-22 18:23:00,
2017-08-22 14:24:00,81.5,69.9,29.89,NNW,342,3.0,5.0,68,0.00,,---,0.00,329.00,VWS V14.01,2017-08-22 18:24:00,
2017-08-22 14:25:00,81.5,69.9,29.89,NNW,342,2.0,2.0,68,0.00,,---,0.00,306.00,VWS V14.01,2017-08-22 18:25:00,
2017-08-22 14:26:00,81.4,69.8,29.89,NNW,342,3.0,4.0,68,0.00,,---,0.00,288.00,VWS V14.01,2017-08-22 18:26:00,
2017-08-22 14:27:00,81.5,69.9,29.89,NNW,343,2.0,4.0,68,0.00,,---,0.00,369.00,VWS V14.01,2017-08-22 18:27:00,
2017-08-22 14:28:00,81.4,69.8,29.89,NW,309,0.0,6.0,68,0.00,,---,0.00,262.00,VWS V14.01,2017-08-22 18:28:00,
2017-08-22 14:29:00,81.4,69.8,29.89,NW,309,2.0,3.0,68,0.00,,---,0.00,272.00,VWS V14.01,2017-08-22 18:29:00,
2017-08-22 14:30:00,81.3,69.7,29.89,NW,309,3.0,3.0,68,0.00,,---,0.00,272.00,VWS V14.01,2017-08-22 18:30:00,
2017-08-22 14:31:00,81.3,69.7,29.89,NW,307,2.0,7.0,68,0.00,,---,0.00,258.00,VWS V14.01,2017-08-22 18:31:00,
2017-08-22 14:32:00,81.6,70.0,29.89,NNW,342,3.0,4.0,68,0.00,,---,0.00,348.00,VWS V14.01,2017-08-22 18:32:00,
2017-08-22 14:33:00,81.2,69.6,29.89,NW,308,0.0,1.0,68,0.00,,---,0.00,223.00,VWS V14.01,2017-08-22 18:33:00,
2017-08-22 14:34:00,81.2,70.1,29.89,NW,308,1.0,2.0,69,0.00,,---,0.00,213.00,VWS V14.01,2017-08-22 18:34:00,
2017-08-22 14:35:00,81.2,70.1,29.89,NW,308,0.0,0.0,69,0.00,,---,0.00,209.00,VWS V14.01,2017-08-22 18:35:00,
2017-08-22 14:36:00,81.3,70.2,29.89,NW,308,1.0,2.0,69,0.00,,---,0.00,237.00,VWS V14.01,2017-08-22 18:36:00,
2017-08-22 14:37:00,81.4,69.8,29.89,NW,312,6.0,7.0,68,0.00,,---,0.00,262.00,VWS V14.01,2017-08-22 18:37:00,
2017-08-22 14:38:00,81.3,70.2,29.89,NW,306,0.0,3.0,69,0.00,,---,0.00,271.00,VWS V14.01,2017-08-22 18:38:00,
2017-08-22 14:39:00,81.3,70.2,29.89,NW,306,0.0,2.0,69,0.00,,---,0.00,265.00,VWS V14.01,2017-08-22 18:39:00,
2017-08-22 14:40:00,81.3,70.2,29.89,NW,306,0.0,0.0,69,0.00,,---,0.00,265.00,VWS V14.01,2017-08-22 18:40:00,
2017-08-22 14:41:00,81.3,70.2,29.89,NW,306,0.0,0.0,69,0.00,,---,0.00,267.00,VWS V14.01,2017-08-22 18:41:00,
2017-08-22 14:42:00,81.2,69.6,29.89,NW,308,0.0,3.0,68,0.00,,---,0.00,241.00,VWS V14.01,2017-08-22 18:42:00,
2017-08-22 14:43:00,81.3,70.2,29.89,NW,306,0.0,1.0,69,0.00,,---,0.00,243.00,VWS V14.01,2017-08-22 18:43:00,
2017-08-22 14:44:00,81.3,70.2,29.89,NW,306,0.0,1.0,69,0.00,,---,0.00,223.00,VWS V14.01,2017-08-22 18:44:00,
2017-08-22 14:45:00,81.3,70.2,29.89,NW,306,1.0,5.0,69,0.00,,---,0.00,206.00,VWS V14.01,2017-08-22 18:45:00,
2017-08-22 14:46:00,81.3,70.2,29.89,NW,306,0.0,1.0,69,0.00,,---,0.00,197.00,VWS V14.01,2017-08-22 18:46:00,
2017-08-22 14:47:00,81.3,70.2,29.89,NW,306,3.0,4.0,69,0.00,,---,0.00,264.00,VWS V14.01,2017-08-22 18:47:00,
2017-08-22 14:48:00,81.2,69.6,29.89,NW,321,6.0,6.0,68,0.00,,---,0.00,239.00,VWS V14.01,2017-08-22 18:48:00,
2017-08-22 14:49:00,81.2,69.6,29.89,NW,324,3.0,5.0,68,0.00,,---,0.00,239.00,VWS V14.01,2017-08-22 18:49:00,
2017-08-22 14:50:00,81.1,70.0,29.89,NW,324,1.0,3.0,69,0.00,,---,0.00,234.00,VWS V14.01,2017-08-22 18:50:00,
2017-08-22 14:51:00,81.0,69.9,29.89,NW,324,2.0,3.0,69,0.00,,---,0.00,230.00,VWS V14.01,2017-08-22 18:51:00,
2017-08-22 14:52:00,81.3,70.2,29.89,NW,306,1.0,2.0,69,0.00,,---,0.00,258.00,VWS V14.01,2017-08-22 18:52:00,
2017-08-22 14:53:00,80.9,69.8,29.89,NW,324,2.0,3.0,69,0.00,,---,0.00,216.00,VWS V14.01,2017-08-22 18:53:00,
2017-08-22 14:54:00,80.9,70.2,29.89,NW,325,2.0,4.0,70,0.00,,---,0.00,174.00,VWS V14.01,2017-08-22 18:54:00,
2017-08-22 14:55:00,80.8,70.1,29.89,NW,325,1.0,6.0,70,0.00,,---,0.00,167.00,VWS V14.01,2017-08-22 18:55:00,
2017-08-22 14:56:00,80.8,70.1,29.89,NW,325,0.0,4.0,70,0.00,,---,0.00,169.00,VWS V14.01,2017-08-22 18:56:00,
2017-08-22 14:57:00,81.3,69.7,29.89,NW,306,3.0,4.0,68,0.00,,---,0.00,229.00,VWS V14.01,2017-08-22 18:57:00,
2017-08-22 14:58:00,80.7,70.0,29.89,NW,323,4.0,5.0,70,0.00,,---,0.00,178.00,VWS V14.01,2017-08-22 18:58:00,
2017-08-22 14:59:00,80.7,70.0,29.89,NW,323,3.0,4.0,70,0.00,,---,0.00,185.00,VWS V14.01,2017-08-22 18:59:00,
2017-08-22 15:00:00,80.7,70.0,29.89,NW,324,1.0,1.0,70,0.00,,---,0.00,216.00,VWS V14.01,2017-08-22 19:00:00,
2017-08-22 15:01:00,80.7,70.0,29.89,NW,324,2.0,4.0,70,0.00,,---,0.00,236.00,VWS V14.01,2017-08-22 19:01:00,
2017-08-22 15:02:00,80.9,69.8,29.89,NW,324,0.0,2.0,69,0.00,,---,0.00,216.00,VWS V14.01,2017-08-22 19:02:00,
2017-08-22 15:03:00,80.7,70.0,29.88,NW,324,3.0,3.0,70,0.00,,---,0.00,301.00,VWS V14.01,2017-08-22 19:03:00,
2017-08-22 15:04:00,80.8,70.1,29.88,NW,322,3.0,4.0,70,0.00,,---,0.00,313.00,VWS V14.01,2017-08-22 19:04:00,
2017-08-22 15:05:00,80.8,70.1,29.88,WNW,300,5.0,7.0,70,0.00,,---,0.00,329.00,VWS V14.01,2017-08-22 19:05:00,
2017-08-22 15:06:00,80.8,69.7,29.88,West,269,6.0,6.0,69,0.00,,---,0.00,301.00,VWS V14.01,2017-08-22 19:06:00,
2017-08-22 15:07:00,80.7,70.0,29.89,NW,324,3.0,6.0,70,0.00,,---,0.00,178.00,VWS V14.01,2017-08-22 19:07:00,
2017-08-22 15:08:00,80.8,69.7,29.88,West,274,3.0,9.0,69,0.00,,---,0.00,262.00,VWS V14.01,2017-08-22 19:08:00,
2017-08-22 15:09:00,80.8,69.7,29.88,West,273,2.0,6.0,69,0.00,,---,0.00,258.00,VWS V14.01,2017-08-22 19:09:00,
2017-08-22 15:10:00,80.9,69.8,29.88,West,273,2.0,2.0,69,0.00,,---,0.00,260.00,VWS V14.01,2017-08-22 19:10:00,
2017-08-22 15:11:00,80.9,69.8,29.88,West,273,3.0,3.0,69,0.00,,---,0.00,248.00,VWS V14.01,2017-08-22 19:11:00,
2017-08-22 15:12:00,80.7,70.0,29.88,NW,323,0.0,4.0,70,0.00,,---,0.00,262.00,VWS V14.01,2017-08-22 19:12:00,
2017-08-22 15:13:00,81.0,69.9,29.88,West,273,5.0,5.0,69,0.00,,---,0.00,251.00,VWS V14.01,2017-08-22 19:13:00,
2017-08-22 15:14:00,81.0,69.4,29.88,West,273,5.0,5.0,68,0.00,,---,0.00,267.00,VWS V14.01,2017-08-22 19:14:00,
2017-08-22 15:15:00,81.1,70.0,29.88,West,273,4.0,6.0,69,0.00,,---,0.00,251.00,VWS V14.01,2017-08-22 19:15:00,
2017-08-22 15:16:00,81.1,69.6,29.88,West,273,3.0,9.0,68,0.00,,---,0.00,236.00,VWS V14.01,2017-08-22 19:16:00,
2017-08-22 15:17:00,80.8,69.7,29.88,West,276,5.0,10.0,69,0.00,,---,0.00,276.00,VWS V14.01,2017-08-22 19:17:00,
2017-08-22 15:18:00,81.1,69.6,29.88,West,273,3.0,3.0,68,0.00,,---,0.00,274.00,VWS V14.01,2017-08-22 19:18:00,
2017-08-22 15:19:00,81.1,69.6,29.88,West,273,4.0,4.0,68,0.00,,---,0.00,301.00,VWS V14.01,2017-08-22 19:19:00,
2017-08-22 15:20:00,81.1,70.0,29.88,West,273,0.0,2.0,69,0.00,,---,0.00,316.00,VWS V14.01,2017-08-22 19:20:00,
2017-08-22 15:21:00,81.2,70.1,29.88,West,273,2.0,5.0,69,0.00,,---,0.00,316.00,VWS V14.01,2017-08-22 19:21:00,
2017-08-22 15:22:00,81.0,69.9,29.88,West,273,0.0,3.0,69,0.00,,---,0.00,253.00,VWS V14.01,2017-08-22 19:22:00,
2017-08-22 15:23:00,81.2,69.6,29.87,West,273,5.0,6.0,68,0.00,,---,0.00,318.00,VWS V14.01,2017-08-22 19:23:00,
2017-08-22 15:24:00,81.2,69.6,29.87,West,273,2.0,3.0,68,0.00,,---,0.00,306.00,VWS V14.01,2017-08-22 19:24:00,
2017-08-22 15:25:00,81.2,69.6,29.87,West,273,3.0,6.0,68,0.00,,---,0.00,283.00,VWS V14.01,2017-08-22 19:25:00,
2017-08-22 15:26:00,81.3,69.7,29.87,West,272,3.0,4.0,68,0.00,,---,0.00,260.00,VWS V14.01,2017-08-22 19:26:00,
2017-08-22 15:27:00,81.1,69.6,29.88,West,273,3.0,4.0,68,0.00,,---,0.00,251.00,VWS V14.01,2017-08-22 19:27:00,
2017-08-22 15:28:00,81.3,69.7,29.87,West,272,6.0,6.0,68,0.00,,---,0.00,264.00,VWS V14.01,2017-08-22 19:28:00,
2017-08-22 15:29:00,81.3,69.7,29.87,West,271,3.0,7.0,68,0.00,,---,0.00,313.00,VWS V14.01,2017-08-22 19:29:00,
2017-08-22 15:30:00,81.3,69.3,29.87,West,271,0.0,4.0,67,0.00,,---,0.00,334.00,VWS V14.01,2017-08-22 19:30:00,
2017-08-22 15:31:00,81.3,69.3,29.87,West,271,5.0,6.0,67,0.00,,---,0.00,360.00,VWS V14.01,2017-08-22 19:31:00,
2017-08-22 15:32:00,81.2,69.6,29.87,West,273,0.0,4.0,68,0.00,,---,0.00,315.00,VWS V14.01,2017-08-22 19:32:00,
2017-08-22 15:33:00,81.3,69.3,29.87,West,263,8.0,8.0,67,0.00,,---,0.00,438.00,VWS V14.01,2017-08-22 19:33:00,
2017-08-22 15:34:00,81.3,68.9,29.87,West,263,5.0,7.0,66,0.00,,---,0.00,434.00,VWS V14.01,2017-08-22 19:34:00,
2017-08-22 15:35:00,81.3,68.9,29.87,West,264,5.0,7.0,66,0.00,,---,0.00,462.00,VWS V14.01,2017-08-22 19:35:00,
2017-08-22 15:36:00,81.3,68.9,29.87,SW,231,4.0,7.0,66,0.00,,---,0.00,543.00,VWS V14.01,2017-08-22 19:36:00,
2017-08-22 15:37:00,81.3,69.7,29.87,West,272,3.0,4.0,68,0.00,,---,0.00,264.00,VWS V14.01,2017-08-22 19:37:00,
2017-08-22 15:38:00,81.4,69.4,29.87,WSW,238,5.0,7.0,67,0.00,,---,0.00,647.00,VWS V14.01,2017-08-22 19:38:00,
2017-08-22 15:39:00,81.5,69.1,29.87,WSW,249,3.0,4.0,66,0.00,,---,0.00,647.00,VWS V14.01,2017-08-22 19:39:00,
2017-08-22 15:40:00,81.7,69.2,29.87,WSW,250,3.0,5.0,66,0.00,,---,0.00,554.00,VWS V14.01,2017-08-22 19:40:00,
2017-08-22 15:41:00,81.8,69.3,29.87,WSW,250,5.0,5.0,66,0.00,,---,0.00,643.00,VWS V14.01,2017-08-22 19:41:00,
2017-08-22 15:42:00,81.3,69.3,29.87,West,270,6.0,11.0,67,0.00,,---,0.00,438.00,VWS V14.01,2017-08-22 19:42:00,
2017-08-22 15:43:00,82.1,69.6,29.87,WSW,243,8.0,10.0,66,0.00,,---,0.00,436.00,VWS V14.01,2017-08-22 19:43:00,
2017-08-22 15:44:00,82.1,69.2,29.87,WSW,243,6.0,7.0,65,0.00,,---,0.00,410.00,VWS V14.01,2017-08-22 19:44:00,
2017-08-22 15:45:00,82.3,69.4,29.87,West,261,6.0,10.0,65,0.00,,---,0.00,411.00,VWS V14.01,2017-08-22 19:45:00,
2017-08-22 15:46:00,82.3,68.9,29.87,WSW,248,7.0,14.0,64,0.00,,---,0.00,381.00,VWS V14.01,2017-08-22 19:46:00,
2017-08-22 15:47:00,81.4,69.4,29.87,WSW,238,0.0,6.0,67,0.00,,---,0.00,591.00,VWS V14.01,2017-08-22 19:47:00,
2017-08-22 15:48:00,82.3,68.9,29.87,West,271,7.0,9.0,64,0.00,,---,0.00,318.00,VWS V14.01,2017-08-22 19:48:00,
2017-08-22 15:49:00,82.3,68.9,29.87,West,261,5.0,7.0,64,0.00,,---,0.00,304.00,VWS V14.01,2017-08-22 19:49:00,
2017-08-22 15:50:00,82.3,68.9,29.87,West,269,4.0,7.0,64,0.00,,---,0.00,287.00,VWS V14.01,2017-08-22 19:50:00,
2017-08-22 15:51:00,82.3,69.4,29.87,West,267,2.0,5.0,65,0.00,,---,0.00,278.00,VWS V14.01,2017-08-22 19:51:00,
2017-08-22 15:52:00,82.0,69.5,29.87,WSW,242,9.0,9.0,66,0.00,,---,0.00,643.00,VWS V14.01,2017-08-22 19:52:00,
2017-08-22 15:53:00,82.2,69.3,29.87,WSW,244,10.0,10.0,65,0.00,,---,0.00,281.00,VWS V14.01,2017-08-22 19:53:00,
2017-08-22 15:54:00,82.2,68.8,29.87,WSW,258,7.0,7.0,64,0.00,,---,0.00,281.00,VWS V14.01,2017-08-22 19:54:00,
2017-08-22 15:55:00,82.1,68.7,29.87,WSW,255,5.0,10.0,64,0.00,,---,0.00,294.00,VWS V14.01,2017-08-22 19:55:00,
2017-08-22 15:56:00,82.1,68.7,29.87,West,271,14.0,14.0,64,0.00,,---,0.00,309.00,VWS V14.01,2017-08-22 19:56:00,
2017-08-22 15:57:00,82.3,68.9,29.87,WSW,254,6.0,9.0,64,0.00,,---,0.00,336.00,VWS V14.01,2017-08-22 19:57:00,
2017-08-22 15:58:00,82.0,67.7,29.86,WSW,247,5.0,6.0,62,0.00,,---,0.00,403.00,VWS V14.01,2017-08-22 19:58:00,
2017-08-22 15:59:00,82.0,67.7,29.86,West,267,7.0,10.0,62,0.00,,---,0.00,418.00,VWS V14.01,2017-08-22 19:59:00,
2017-08-22 16:00:00,82.0,67.7,29.86,West,267,2.0,4.0,62,0.00,,---,0.00,418.00,VWS V14.01,2017-08-22 20:00:00,
2017-08-22 16:01:00,82.0,68.2,29.86,West,281,7.0,11.0,63,0.00,,---,0.00,418.00,VWS V14.01,2017-08-22 20:01:00,
2017-08-22 16:02:00,82.2,69.3,29.87,West,265,4.0,5.0,65,0.00,,---,0.00,276.00,VWS V14.01,2017-08-22 20:02:00,
2017-08-22 16:03:00,82.1,68.3,29.86,West,267,5.0,5.0,63,0.00,,---,0.00,397.00,VWS V14.01,2017-08-22 20:03:00,
2017-08-22 16:04:00,82.1,68.3,29.86,West,269,11.0,11.0,63,0.00,,---,0.00,397.00,VWS V14.01,2017-08-22 20:04:00,
2017-08-22 16:05:00,82.1,68.3,29.86,West,260,4.0,5.0,63,0.00,,---,0.00,879.00,VWS V14.01,2017-08-22 20:05:00,
2017-08-22 16:06:00,82.3,68.5,29.86,SW,236,4.0,12.0,63,0.00,,---,0.00,867.00,VWS V14.01,2017-08-22 20:06:00,
2017-08-22 16:07:00,82.0,67.7,29.86,WSW,250,4.0,12.0,62,0.00,,---,0.00,392.00,VWS V14.01,2017-08-22 20:07:00,
2017-08-22 16:08:00,82.8,68.9,29.86,WSW,239,2.0,4.0,63,0.00,,---,0.00,846.00,VWS V14.01,2017-08-22 20:08:00,
2017-08-22 16:09:00,83.1,68.7,29.86,WSW,244,5.0,6.0,62,0.00,,---,0.00,821.00,VWS V14.01,2017-08-22 20:09:00,
2017-08-22 16:10:00,83.3,68.9,29.86,West,275,0.0,6.0,62,0.00,,---,0.00,754.00,VWS V14.01,2017-08-22 20:10:00,
2017-08-22 16:11:00,83.6,69.2,29.86,West,275,0.0,0.0,62,0.00,,---,0.00,737.00,VWS V14.01,2017-08-22 20:11:00,
2017-08-22 16:12:00,82.0,68.2,29.86,West,267,3.0,7.0,63,0.00,,---,0.00,397.00,VWS V14.01,2017-08-22 20:12:00,
2017-08-22 16:13:00,84.0,68.6,29.86,NNW,340,3.0,15.0,60,0.00,,---,0.00,735.00,VWS V14.01,2017-08-22 20:13:00,
2017-08-22 16:14:00,84.1,68.7,29.86,WSW,248,3.0,16.0,60,0.00,,---,0.00,735.00,VWS V14.01,2017-08-22 20:14:00,
2017-08-22 16:15:00,84.2,68.3,29.86,West,259,8.0,11.0,59,0.00,,---,0.00,735.00,VWS V14.01,2017-08-22 20:15:00,
2017-08-22 16:16:00,84.2,68.3,29.86,West,263,4.0,10.0,59,0.00,,---,0.00,316.00,VWS V14.01,2017-08-22 20:16:00,
2017-08-22 16:17:00,82.6,68.7,29.86,WSW,239,4.0,7.0,63,0.00,,---,0.00,846.00,VWS V14.01,2017-08-22 20:17:00,
2017-08-22 16:18:00,83.9,68.1,29.86,West,259,4.0,14.0,59,0.00,,---,0.00,200.00,VWS V14.01,2017-08-22 20:18:00,
2017-08-22 16:19:00,83.7,67.9,29.85,West,261,5.0,9.0,59,0.00,,---,0.00,202.00,VWS V14.01,2017-08-22 20:19:00,
2017-08-22 16:20:00,83.6,68.3,29.86,West,268,2.0,8.0,60,0.00,,---,0.00,213.00,VWS V14.01,2017-08-22 20:20:00,
2017-08-22 16:21:00,83.4,68.1,29.86,NW,304,4.0,6.0,60,0.00,,---,0.00,227.00,VWS V14.01,2017-08-22 20:21:00,
2017-08-22 16:22:00,83.9,69.0,29.86,West,276,14.0,15.0,61,0.00,,---,0.00,735.00,VWS V14.01,2017-08-22 20:22:00,
2017-08-22 16:23:00,83.0,68.2,29.85,WNW,282,4.0,9.0,61,0.00,,---,0.00,264.00,VWS V14.01,2017-08-22 20:23:00,
2017-08-22 16:24:00,82.9,68.1,29.85,WNW,286,5.0,7.0,61,0.00,,---,0.00,260.00,VWS V14.01,2017-08-22 20:24:00,
2017-08-22 16:25:00,82.7,68.4,29.85,WNW,285,2.0,4.0,62,0.00,,---,0.00,253.00,VWS V14.01,2017-08-22 20:25:00,
2017-08-22 16:26:00,82.6,68.3,29.85,WNW,284,4.0,4.0,62,0.00,,---,0.00,241.00,VWS V14.01,2017-08-22 20:26:00,
2017-08-22 16:27:00,84.1,68.2,29.86,WSW,242,6.0,17.0,59,0.00,,---,0.00,216.00,VWS V14.01,2017-08-22 20:27:00,
2017-08-22 16:28:00,82.4,68.1,29.85,WNW,294,5.0,9.0,62,0.00,,---,0.00,202.00,VWS V14.01,2017-08-22 20:28:00,
2017-08-22 16:29:00,82.3,68.0,29.85,WNW,290,4.0,6.0,62,0.00,,---,0.00,199.00,VWS V14.01,2017-08-22 20:29:00,
2017-08-22 16:30:00,82.1,68.3,29.85,WNW,282,6.0,9.0,63,0.00,,---,0.00,200.00,VWS V14.01,2017-08-22 20:30:00,
2017-08-22 16:31:00,82.0,68.2,29.85,West,281,3.0,6.0,63,0.00,,---,0.00,204.00,VWS V14.01,2017-08-22 20:31:00,
2017-08-22 16:32:00,83.1,68.3,29.85,WNW,286,6.0,9.0,61,0.00,,---,0.00,257.00,VWS V14.01,2017-08-22 20:32:00,
2017-08-22 16:33:00,81.9,68.1,29.86,West,279,10.0,11.0,63,0.00,,---,0.00,213.00,VWS V14.01,2017-08-22 20:33:00,
2017-08-22 16:34:00,81.8,68.0,29.86,West,279,4.0,8.0,63,0.00,,---,0.00,216.00,VWS V14.01,2017-08-22 20:34:00,
2017-08-22 16:35:00,81.7,67.9,29.86,West,279,2.0,5.0,63,0.00,,---,0.00,223.00,VWS V14.01,2017-08-22 20:35:00,
2017-08-22 16:36:00,81.6,67.8,29.86,West,279,1.0,3.0,63,0.00,,---,0.00,234.00,VWS V14.01,2017-08-22 20:36:00,
2017-08-22 16:37:00,82.4,68.1,29.85,WNW,296,5.0,7.0,62,0.00,,---,0.00,213.00,VWS V14.01,2017-08-22 20:37:00,
2017-08-22 16:38:00,81.6,68.7,29.86,West,279,0.0,4.0,65,0.00,,---,0.00,251.00,VWS V14.01,2017-08-22 20:38:00,
2017-08-22 16:39:00,81.6,68.7,29.86,West,279,2.0,3.0,65,0.00,,---,0.00,243.00,VWS V14.01,2017-08-22 20:39:00,
2017-08-22 16:40:00,81.6,68.7,29.86,West,279,3.0,5.0,65,0.00,,---,0.00,243.00,VWS V14.01,2017-08-22 20:40:00,
2017-08-22 16:41:00,81.6,68.7,29.86,West,278,1.0,5.0,65,0.00,,---,0.00,236.00,VWS V14.01,2017-08-22 20:41:00,
2017-08-22 16:42:00,81.9,68.1,29.86,West,271,6.0,9.0,63,0.00,,---,0.00,209.00,VWS V14.01,2017-08-22 20:42:00,
2017-08-22 16:43:00,81.5,68.6,29.86,WSW,256,7.0,9.0,65,0.00,,---,0.00,211.00,VWS V14.01,2017-08-22 20:43:00,
2017-08-22 16:44:00,81.4,68.5,29.86,West,260,4.0,13.0,65,0.00,,---,0.00,207.00,VWS V14.01,2017-08-22 20:44:00,
2017-08-22 16:45:00,81.2,68.3,29.86,SW,229,9.0,9.0,65,0.00,,---,0.00,200.00,VWS V14.01,2017-08-22 20:45:00,
2017-08-22 16:46:00,81.2,68.3,29.86,WSW,240,9.0,9.0,65,0.00,,---,0.00,199.00,VWS V14.01,2017-08-22 20:46:00,
2017-08-22 16:47:00,81.6,68.2,29.86,West,279,3.0,3.0,64,0.00,,---,0.00,251.00,VWS V14.01,2017-08-22 20:47:00,
2017-08-22 16:48:00,80.9,68.0,29.86,WSW,245,2.0,6.0,65,0.00,,---,0.00,183.00,VWS V14.01,2017-08-22 20:48:00,
2017-08-22 16:49:00,80.8,68.4,29.86,WSW,247,4.0,6.0,66,0.00,,---,0.00,174.00,VWS V14.01,2017-08-22 20:49:00,
2017-08-22 16:50:00,80.7,68.3,29.86,WSW,247,0.0,5.0,66,0.00,,---,0.00,165.00,VWS V14.01,2017-08-22 20:50:00,
2017-08-22 16:51:00,80.7,68.7,29.86,WSW,248,6.0,6.0,67,0.00,,---,0.00,153.00,VWS V14.01,2017-08-22 20:51:00,
2017-08-22 16:52:00,81.5,68.6,29.86,West,259,6.0,10.0,65,0.00,,---,0.00,211.00,VWS V14.01,2017-08-22 20:52:00,
2017-08-22 16:53:00,80.5,68.5,29.86,West,265,4.0,4.0,67,0.00,,---,0.00,155.00,VWS V14.01,2017-08-22 20:53:00,
2017-08-22 16:54:00,80.4,68.9,29.86,West,265,4.0,4.0,68,0.00,,---,0.00,151.00,VWS V14.01,2017-08-22 20:54:00,
2017-08-22 16:55:00,80.3,68.8,29.86,West,265,4.0,9.0,68,0.00,,---,0.00,144.00,VWS V14.01,2017-08-22 20:55:00,
2017-08-22 16:56:00,80.2,68.7,29.86,West,263,1.0,7.0,68,0.00,,---,0.00,139.00,VWS V14.01,2017-08-22 20:56:00,
2017-08-22 16:57:00,81.0,68.1,29.86,WSW,243,5.0,5.0,65,0.00,,---,0.00,183.00,VWS V14.01,2017-08-22 20:57:00,
2017-08-22 16:58:00,80.0,68.1,29.86,West,271,2.0,7.0,67,0.00,,---,0.00,139.00,VWS V14.01,2017-08-22 20:58:00,
2017-08-22 16:59:00,80.0,68.1,29.86,West,271,0.0,4.0,67,0.00,,---,0.00,144.00,VWS V14.01,2017-08-22 20:59:00,
2017-08-22 17:00:00,79.9,68.4,29.86,West,271,4.0,4.0,68,0.00,,---,0.00,149.00,VWS V14.01,2017-08-22 21:00:00,
2017-08-22 17:01:00,79.9,68.4,29.86,West,269,5.0,6.0,68,0.00,,---,0.00,156.00,VWS V14.01,2017-08-22 21:01:00,
2017-08-22 17:02:00,80.5,68.5,29.86,West,265,2.0,3.0,67,0.00,,---,0.00,155.00,VWS V14.01,2017-08-22 21:02:00,
2017-08-22 17:03:00,79.8,68.3,29.86,West,269,1.0,3.0,68,0.00,,---,0.00,169.00,VWS V14.01,2017-08-22 21:03:00,
2017-08-22 17:04:00,79.7,68.2,29.86,West,270,1.0,2.0,68,0.00,,---,0.00,171.00,VWS V14.01,2017-08-22 21:04:00,
2017-08-22 17:05:00,79.7,68.2,29.87,West,269,1.0,3.0,68,0.00,,---,0.00,167.00,VWS V14.01,2017-08-22 21:05:00,
2017-08-22 17:06:00,79.7,68.6,29.87,West,269,3.0,3.0,69,0.00,,---,0.00,158.00,VWS V14.01,2017-08-22 21:06:00,
2017-08-22 17:07:00,80.1,68.2,29.86,West,271,5.0,7.0,67,0.00,,---,0.00,137.00,VWS V14.01,2017-08-22 21:07:00,
2017-08-22 17:08:00,79.7,68.6,29.87,West,269,3.0,6.0,69,0.00,,---,0.00,144.00,VWS V14.01,2017-08-22 21:08:00,
2017-08-22 17:09:00,79.7,68.6,29.87,West,269,3.0,4.0,69,0.00,,---,0.00,144.00,VWS V14.01,2017-08-22 21:09:00,
2017-08-22 17:10:00,79.7,68.6,29.87,West,269,4.0,4.0,69,0.00,,---,0.00,149.00,VWS V14.01,2017-08-22 21:10:00,
2017-08-22 17:11:00,79.6,68.5,29.87,West,269,0.0,4.0,69,0.00,,---,0.00,144.00,VWS V14.01,2017-08-22 21:11:00,
2017-08-22 17:12:00,79.8,68.3,29.86,West,269,2.0,3.0,68,0.00,,---,0.00,167.00,VWS V14.01,2017-08-22 21:12:00,
2017-08-22 17:13:00,79.6,68.5,29.86,West,268,3.0,6.0,69,0.00,,---,0.00,128.00,VWS V14.01,2017-08-22 21:13:00,
2017-08-22 17:14:00,79.6,68.1,29.86,West,267,2.0,5.0,68,0.00,,---,0.00,111.00,VWS V14.01,2017-08-22 21:14:00,
2017-08-22 17:15:00,79.6,68.5,29.86,West,267,0.0,4.0,69,0.00,,---,0.00,102.00,VWS V14.01,2017-08-22 21:15:00,
2017-08-22 17:16:00,79.6,68.5,29.86,West,267,1.0,4.0,69,0.00,,---,0.00,93.00,VWS V14.01,2017-08-22 21:16:00,
2017-08-22 17:17:00,79.7,68.6,29.87,West,269,3.0,4.0,69,0.00,,---,0.00,142.00,VWS V14.01,2017-08-22 21:17:00,
2017-08-22 17:18:00,79.6,68.5,29.86,West,267,1.0,2.0,69,0.00,,---,0.00,76.00,VWS V14.01,2017-08-22 21:18:00,
2017-08-22 17:19:00,79.6,68.1,29.86,West,265,3.0,7.0,68,0.00,,---,0.00,70.00,VWS V14.01,2017-08-22 21:19:00,
2017-08-22 17:20:00,79.6,68.1,29.86,West,265,7.0,7.0,68,0.00,,---,0.00,67.00,VWS V14.01,2017-08-22 21:20:00,
2017-08-22 17:21:00,79.6,68.1,29.86,West,265,3.0,5.0,68,0.00,,---,0.00,62.00,VWS V14.01,2017-08-22 21:21:00,
2017-08-22 17:22:00,79.6,68.5,29.86,West,269,2.0,2.0,69,0.00,,---,0.00,128.00,VWS V14.01,2017-08-22 21:22:00,
2017-08-22 17:23:00,79.5,68.0,29.87,WNW,288,1.0,4.0,68,0.00,,---,0.00,54.00,VWS V14.01,2017-08-22 21:23:00,
2017-08-22 17:24:00,79.5,68.0,29.87,WNW,284,1.0,4.0,68,0.00,,---,0.00,54.00,VWS V14.01,2017-08-22 21:24:00,
2017-08-22 17:25:00,79.4,67.9,29.87,WNW,282,1.0,4.0,68,0.00,,---,0.00,54.00,VWS V14.01,2017-08-22 21:25:00,
2017-08-22 17:26:00,79.4,67.9,29.87,WNW,283,0.0,1.0,68,0.00,,---,0.00,56.00,VWS V14.01,2017-08-22 21:26:00,
2017-08-22 17:27:00,79.6,68.5,29.86,West,267,1.0,1.0,69,0.00,,---,0.00,76.00,VWS V14.01,2017-08-22 21:27:00,
2017-08-22 17:28:00,79.4,67.9,29.87,West,272,7.0,7.0,68,0.00,,---,0.00,69.00,VWS V14.01,2017-08-22 21:28:00,
2017-08-22 17:29:00,79.3,67.8,29.87,West,271,2.0,5.0,68,0.00,,---,0.00,81.00,VWS V14.01,2017-08-22 21:29:00,
2017-08-22 17:30:00,79.3,67.8,29.87,West,273,2.0,11.0,68,0.00,,---,0.00,95.00,VWS V14.01,2017-08-22 21:30:00,
2017-08-22 17:31:00,79.3,67.8,29.87,West,273,4.0,6.0,68,0.00,,---,0.00,109.00,VWS V14.01,2017-08-22 21:31:00,
2017-08-22 17:32:00,79.5,68.0,29.87,WNW,288,1.0,4.0,68,0.00,,---,0.00,54.00,VWS V14.01,2017-08-22 21:32:00,
2017-08-22 17:33:00,79.2,67.7,29.87,West,259,3.0,6.0,68,0.00,,---,0.00,149.00,VWS V14.01,2017-08-22 21:33:00,
2017-08-22 17:34:00,79.2,67.7,29.87,WSW,257,1.0,5.0,68,0.00,,---,0.00,153.00,VWS V14.01,2017-08-22 21:34:00,
2017-08-22 17:35:00,79.2,67.7,29.87,WSW,257,3.0,5.0,68,0.00,,---,0.00,155.00,VWS V14.01,2017-08-22 21:35:00,
2017-08-22 17:36:00,79.2,67.7,29.87,WSW,257,5.0,6.0,68,0.00,,---,0.00,156.00,VWS V14.01,2017-08-22 21:36:00,
2017-08-22 17:37:00,79.4,67.9,29.87,West,274,5.0,6.0,68,0.00,,---,0.00,69.00,VWS V14.01,2017-08-22 21:37:00,
2017-08-22 17:38:00,79.3,67.8,29.87,West,261,3.0,4.0,68,0.00,,---,0.00,155.00,VWS V14.01,2017-08-22 21:38:00,
2017-08-22 17:39:00,79.3,67.8,29.87,West,261,1.0,1.0,68,0.00,,---,0.00,158.00,VWS V14.01,2017-08-22 21:39:00,
2017-08-22 17:40:00,79.3,67.8,29.87,West,261,0.0,5.0,68,0.00,,---,0.00,169.00,VWS V14.01,2017-08-22 21:40:00,
2017-08-22 17:41:00,79.3,67.8,29.87,West,260,1.0,5.0,68,0.00,,---,0.00,179.00,VWS V14.01,2017-08-22 21:41:00,
2017-08-22 17:42:00,79.2,67.7,29.87,WSW,258,5.0,6.0,68,0.00,,---,0.00,149.00,VWS V14.01,2017-08-22 21:42:00,
2017-08-22 17:43:00,79.4,67.9,29.87,WSW,244,0.0,5.0,68,0.00,,---,0.00,192.00,VWS V14.01,2017-08-22 21:43:00,
2017-08-22 17:44:00,79.4,67.9,29.87,WSW,244,3.0,8.0,68,0.00,,---,0.00,202.00,VWS V14.01,2017-08-22 21:44:00,
2017-08-22 17:45:00,79.4,67.9,29.87,WSW,245,2.0,5.0,68,0.00,,---,0.00,229.00,VWS V14.01,2017-08-22 21:45:00,
2017-08-22 17:46:00,79.4,67.9,29.87,WSW,245,2.0,5.0,68,0.00,,---,0.00,260.00,VWS V14.01,2017-08-22 21:46:00,
2017-08-22 17:47:00,79.3,67.8,29.87,West,261,2.0,4.0,68,0.00,,---,0.00,155.00,VWS V14.01,2017-08-22 21:47:00,
2017-08-22 17:48:00,79.6,68.1,29.87,WSW,246,2.0,6.0,68,0.00,,---,0.00,330.00,VWS V14.01,2017-08-22 21:48:00,
2017-08-22 17:49:00,79.6,68.1,29.87,WSW,257,2.0,10.0,68,0.00,,---,0.00,318.00,VWS V14.01,2017-08-22 21:49:00,
2017-08-22 17:50:00,79.6,68.1,29.87,West,259,3.0,6.0,68,0.00,,---,0.00,327.00,VWS V14.01,2017-08-22 21:50:00,
2017-08-22 17:51:00,79.7,68.2,29.86,West,259,4.0,6.0,68,0.00,,---,0.00,316.00,VWS V14.01,2017-08-22 21:51:00,
2017-08-22 17:52:00,79.8,68.3,29.87,West,259,3.0,6.0,68,0.00,,---,0.00,316.00,VWS V14.01,2017-08-22 21:52:00,
2017-08-22 17:53:00,79.4,67.9,29.87,WSW,244,1.0,5.0,68,0.00,,---,0.00,185.00,VWS V14.01,2017-08-22 21:53:00,
2017-08-22 17:54:00,80.0,68.5,29.86,WSW,257,2.0,8.0,68,0.00,,---,0.00,564.00,VWS V14.01,2017-08-22 21:54:00,
2017-08-22 17:55:00,80.1,68.6,29.87,WSW,257,2.0,4.0,68,0.00,,---,0.00,526.00,VWS V14.01,2017-08-22 21:55:00,
2017-08-22 17:56:00,80.2,68.7,29.87,West,268,5.0,12.0,68,0.00,,---,0.00,568.00,VWS V14.01,2017-08-22 21:56:00,
2017-08-22 17:57:00,79.5,68.0,29.87,WSW,246,2.0,6.0,68,0.00,,---,0.00,330.00,VWS V14.01,2017-08-22 21:57:00,
2017-08-22 17:58:00,80.5,68.5,29.87,West,261,1.0,5.0,67,0.00,,---,0.00,538.00,VWS V14.01,2017-08-22 21:58:00,
2017-08-22 17:59:00,80.7,68.7,29.87,West,261,0.0,1.0,67,0.00,,---,0.00,552.00,VWS V14.01,2017-08-22 21:59:00,
2017-08-22 18:00:00,80.9,68.9,29.87,West,261,0.0,4.0,67,0.00,,---,0.00,513.00,VWS V14.01,2017-08-22 22:00:00,
2017-08-22 18:01:00,81.1,69.1,29.87,West,265,1.0,7.0,67,0.00,,---,0.00,555.00,VWS V14.01,2017-08-22 22:01:00,
2017-08-22 18:02:00,81.3,68.9,29.86,West,266,1.0,3.0,66,0.00,,---,0.00,533.00,VWS V14.01,2017-08-22 22:02:00,
2017-08-22 18:03:00,79.9,68.4,29.86,WSW,258,8.0,9.0,68,0.00,,---,0.00,564.00,VWS V14.01,2017-08-22 22:03:00,
2017-08-22 18:04:00,81.7,69.2,29.86,West,265,4.0,6.0,66,0.00,,---,0.00,461.00,VWS V14.01,2017-08-22 22:04:00,
2017-08-22 18:05:00,81.8,68.9,29.86,West,265,3.0,6.0,65,0.00,,---,0.00,461.00,VWS V14.01,2017-08-22 22:05:00,
2017-08-22 18:06:00,82.0,69.1,29.86,West,268,7.0,7.0,65,0.00,,---,0.00,492.00,VWS V14.01,2017-08-22 22:06:00,
2017-08-22 18:07:00,82.1,69.2,29.86,West,267,1.0,7.0,65,0.00,,---,0.00,492.00,VWS V14.01,2017-08-22 22:07:00,
2017-08-22 18:08:00,80.5,68.5,29.87,West,261,0.0,5.0,67,0.00,,---,0.00,552.00,VWS V14.01,2017-08-22 22:08:00,
2017-08-22 18:09:00,82.2,68.8,29.86,West,266,4.0,6.0,64,0.00,,---,0.00,441.00,VWS V14.01,2017-08-22 22:09:00,
2017-08-22 18:10:00,82.3,68.9,29.86,West,266,3.0,3.0,64,0.00,,---,0.00,441.00,VWS V14.01,2017-08-22 22:10:00,
2017-08-22 18:13:00,81.6,69.2,29.86,West,265,4.0,4.0,66,0.00,,---,0.00,526.00,VWS V14.01,2017-08-22 22:13:00,
2017-08-22 18:18:00,82.2,68.8,29.86,West,267,2.0,5.0,64,0.00,,---,0.00,446.00,VWS V14.01,2017-08-22 22:18:00,